Observation data for Odell on 01/16/2019      Previous  Date  Next       Current Mesonet Observations  Soil Data  Daily Summary Page  Observations in Plain Language
KOD1 160600Z 15011KT 06/05 A3015 RMK A01 T00590047  RH  092%=      5-min Rain = 0
KOD1 160601Z 15011KT 06/05 A3015 RMK A01 T00590047  RH  092%=      5-min Rain = 0
KOD1 160602Z 15010KT 06/05 A3015 RMK A01 T00580047  RH  092%=      5-min Rain = 0
KOD1 160603Z 15010KT 06/05 A3015 RMK A01 T00580048  RH  093%=      5-min Rain = 0
KOD1 160604Z 15010KT 06/05 A3015 RMK A01 T00580047  RH  093%=      5-min Rain = 0
KOD1 160605Z 15011KT 06/05 A3014 RMK A01 T00580046  RH  093%=      5-min Rain = 0
KOD1 160606Z 15010KT 06/05 A3014 RMK A01 T00570046  RH  093%=      5-min Rain = 0
KOD1 160607Z 15011KT 06/05 A3014 RMK A01 T00570047  RH  093%=      5-min Rain = 0
KOD1 160608Z 15011KT 06/05 A3014 RMK A01 T00570047  RH  093%=      5-min Rain = 0
KOD1 160609Z 15011KT 06/05 A3014 RMK A01 T00570047  RH  093%=      5-min Rain = 0
KOD1 160610Z 15011KT 06/05 A3014 RMK A01 T00570047  RH  093%=      5-min Rain = 0
KOD1 160611Z 15011KT 06/05 A3014 RMK A01 T00570047  RH  093%=      5-min Rain = 0
KOD1 160612Z 15010KT 06/05 A3014 RMK A01 T00570047  RH  093%=      5-min Rain = 0
KOD1 160613Z 15011KT 06/05 A3014 RMK A01 T00570047  RH  093%=      5-min Rain = 0
KOD1 160614Z 15011KT 06/05 A3014 RMK A01 T00570047  RH  093%=      5-min Rain = 0
KOD1 160615Z 15011KT 06/05 A3014 RMK A01 T00570047  RH  093%=      5-min Rain = 0
KOD1 160616Z 15011KT 06/05 A3014 RMK A01 T00560047  RH  093%=      5-min Rain = 0
KOD1 160617Z 15011KT 06/05 A3014 RMK A01 T00560046  RH  093%=      5-min Rain = 0
KOD1 160618Z 15011KT 06/05 A3014 RMK A01 T00560047  RH  094%=      5-min Rain = 0
KOD1 160619Z 15011KT 06/05 A3014 RMK A01 T00560047  RH  094%=      5-min Rain = 0
KOD1 160620Z 15010KT 06/05 A3014 RMK A01 T00560047  RH  094%=      5-min Rain = 0
KOD1 160621Z 15011KT 06/05 A3014 RMK A01 T00560046  RH  094%=      5-min Rain = 0
KOD1 160622Z 15010KT 06/05 A3014 RMK A01 T00560046  RH  094%=      5-min Rain = 0
KOD1 160623Z 15011KT 06/05 A3014 RMK A01 T00560047  RH  094%=      5-min Rain = 0
KOD1 160624Z 15012KT 06/05 A3014 RMK A01 T00560047  RH  094%=      5-min Rain = 0
KOD1 160625Z 15012KT 06/05 A3014 RMK A01 T00560047  RH  094%=      5-min Rain = 0
KOD1 160626Z 16012KT 06/05 A3014 RMK A01 T00560047  RH  094%=      5-min Rain = 0
KOD1 160627Z 15011KT 06/05 A3014 RMK A01 T00560047  RH  094%=      5-min Rain = 0
KOD1 160628Z 15010KT 06/05 A3014 RMK A01 T00560047  RH  094%=      5-min Rain = 0
KOD1 160629Z 15011KT 06/05 A3014 RMK A01 T00560046  RH  094%=      5-min Rain = 0
KOD1 160630Z 15010KT 06/05 A3014 RMK A01 T00550046  RH  094%=      5-min Rain = 0
KOD1 160631Z 15010KT 06/05 A3014 RMK A01 T00550046  RH  094%=      5-min Rain = 0
KOD1 160632Z 15010KT 06/05 A3014 RMK A01 T00550046  RH  094%=      5-min Rain = 0
KOD1 160633Z 15010KT 06/05 A3014 RMK A01 T00550046  RH  094%=      5-min Rain = 0
KOD1 160634Z 15011KT 06/05 A3014 RMK A01 T00550046  RH  094%=      5-min Rain = 0
KOD1 160635Z 15010KT 06/05 A3014 RMK A01 T00550046  RH  094%=      5-min Rain = 0
KOD1 160636Z 15011KT 06/05 A3013 RMK A01 T00550046  RH  094%=      5-min Rain = 0
KOD1 160637Z 15011KT 06/05 A3013 RMK A01 T00550046  RH  094%=      5-min Rain = 0
KOD1 160638Z 15011KT 06/05 A3013 RMK A01 T00550046  RH  094%=      5-min Rain = 0
KOD1 160639Z 15011KT 06/05 A3013 RMK A01 T00550046  RH  094%=      5-min Rain = 0
KOD1 160640Z 15011KT 06/05 A3013 RMK A01 T00550047  RH  094%=      5-min Rain = 0
KOD1 160641Z 15012KT 06/05 A3013 RMK A01 T00560047  RH  094%=      5-min Rain = 0
KOD1 160642Z 15011KT 06/05 A3013 RMK A01 T00560048  RH  094%=      5-min Rain = 0
KOD1 160643Z 15011KT 06/05 A3013 RMK A01 T00560048  RH  094%=      5-min Rain = 0
KOD1 160644Z 15011KT 06/05 A3013 RMK A01 T00560047  RH  094%=      5-min Rain = 0
KOD1 160645Z 15011KT 06/05 A3013 RMK A01 T00560048  RH  094%=      5-min Rain = 0
KOD1 160646Z 15011KT 06/05 A3013 RMK A01 T00560048  RH  094%=      5-min Rain = 0
KOD1 160647Z 15011KT 06/05 A3013 RMK A01 T00560047  RH  094%=      5-min Rain = 0
KOD1 160648Z 15012KT 06/05 A3013 RMK A01 T00560047  RH  094%=      5-min Rain = 0
KOD1 160649Z 15012KT 06/05 A3012 RMK A01 T00560047  RH  094%=      5-min Rain = 0
KOD1 160650Z 15011KT 06/05 A3012 RMK A01 T00560047  RH  094%=      5-min Rain = 0
KOD1 160651Z 15012KT 06/05 A3012 RMK A01 T00560047  RH  094%=      5-min Rain = 0
KOD1 160652Z 15011KT 06/05 A3012 RMK A01 T00570048  RH  094%=      5-min Rain = 0
KOD1 160653Z 15012KT 06/05 A3012 RMK A01 T00570048  RH  094%=      5-min Rain = 0
KOD1 160654Z 15011KT 06/05 A3012 RMK A01 T00570047  RH  094%=      5-min Rain = 0
KOD1 160655Z 15012KT 06/05 A3012 RMK A01 T00570048  RH  094%=      5-min Rain = 0
KOD1 160656Z 15011KT 06/05 A3012 RMK A01 T00560047  RH  094%=      5-min Rain = 0
KOD1 160657Z 15011KT 06/05 A3012 RMK A01 T00560047  RH  094%=      5-min Rain = 0
KOD1 160658Z 15012KT 06/05 A3012 RMK A01 T00560047  RH  094%=      5-min Rain = 0
KOD1 160659Z 15012KT 06/05 A3012 RMK A01 T00560047  RH  094%=      5-min Rain = 0
KOD1 160700Z 15012KT 06/05 A3012 RMK A01 T00560048  RH  094%=      5-min Rain = 0
KOD1 160701Z 15012KT 06/05 A3012 RMK A01 T00560047  RH  094%=      5-min Rain = 0
KOD1 160702Z 15012KT 06/05 A3012 RMK A01 T00560047  RH  094%=      5-min Rain = 0
KOD1 160703Z 15012KT 06/05 A3012 RMK A01 T00560047  RH  094%=      5-min Rain = 0
KOD1 160704Z 15012KT 06/05 A3012 RMK A01 T00560047  RH  094%=      5-min Rain = 0
KOD1 160705Z 15011KT 06/05 A3012 RMK A01 T00560047  RH  094%=      5-min Rain = 0
KOD1 160706Z 15011KT 06/05 A3012 RMK A01 T00560046  RH  094%=      5-min Rain = 0
KOD1 160707Z 15011KT 06/05 A3012 RMK A01 T00550046  RH  094%=      5-min Rain = 0
KOD1 160708Z 15011KT 06/05 A3012 RMK A01 T00550046  RH  094%=      5-min Rain = 0
KOD1 160709Z 15011KT 06/05 A3012 RMK A01 T00550046  RH  094%=      5-min Rain = 0
KOD1 160710Z 15011KT 06/05 A3012 RMK A01 T00550046  RH  094%=      5-min Rain = 0
KOD1 160711Z 15011KT 06/05 A3012 RMK A01 T00550046  RH  094%=      5-min Rain = 0
KOD1 160712Z 15012KT 05/05 A3012 RMK A01 T00540046  RH  094%=      5-min Rain = 0
KOD1 160713Z 15012KT 05/05 A3012 RMK A01 T00540046  RH  094%=      5-min Rain = 0
KOD1 160714Z 15012KT 06/05 A3012 RMK A01 T00550047  RH  095%=      5-min Rain = 0
KOD1 160715Z 15011KT 06/05 A3012 RMK A01 T00550046  RH  094%=      5-min Rain = 0
KOD1 160716Z 15010KT 06/05 A3012 RMK A01 T00550046  RH  094%=      5-min Rain = 0
KOD1 160717Z 15011KT 05/05 A3012 RMK A01 T00540046  RH  094%=      5-min Rain = 0
KOD1 160718Z 15011KT 05/05 A3012 RMK A01 T00540046  RH  094%=      5-min Rain = 0
KOD1 160719Z 15010KT 05/05 A3012 RMK A01 T00540045  RH  094%=      5-min Rain = 0
KOD1 160720Z 16010KT 05/05 A3012 RMK A01 T00540046  RH  094%=      5-min Rain = 0
KOD1 160721Z 15012KT 05/05 A3012 RMK A01 T00540046  RH  095%=      5-min Rain = 0
KOD1 160722Z 16011KT 05/05 A3012 RMK A01 T00540047  RH  095%=      5-min Rain = 0
KOD1 160723Z 15011KT 05/05 A3012 RMK A01 T00540046  RH  095%=      5-min Rain = 0
KOD1 160724Z 16011KT 05/05 A3012 RMK A01 T00540046  RH  094%=      5-min Rain = 0
KOD1 160725Z 16012KT 05/05 A3012 RMK A01 T00540046  RH  094%=      5-min Rain = 0
KOD1 160726Z 15011KT 05/05 A3012 RMK A01 T00540046  RH  095%=      5-min Rain = 0
KOD1 160727Z 15011KT 05/05 A3011 RMK A01 T00540045  RH  094%=      5-min Rain = 0
KOD1 160728Z 15011KT 05/05 A3011 RMK A01 T00530045  RH  095%=      5-min Rain = 0
KOD1 160729Z 15011KT 05/05 A3011 RMK A01 T00530045  RH  095%=      5-min Rain = 0
KOD1 160730Z 15012KT 05/05 A3011 RMK A01 T00530045  RH  095%=      5-min Rain = 0
KOD1 160731Z 15011KT 05/05 A3011 RMK A01 T00530046  RH  095%=      5-min Rain = 0
KOD1 160732Z 15011KT 05/05 A3011 RMK A01 T00530046  RH  095%=      5-min Rain = 0
KOD1 160733Z 15011KT 05/05 A3011 RMK A01 T00530046  RH  095%=      5-min Rain = 0
KOD1 160734Z 15011KT 05/05 A3011 RMK A01 T00530046  RH  095%=      5-min Rain = 0
KOD1 160735Z 15012KT 05/05 A3011 RMK A01 T00530046  RH  095%=      5-min Rain = 0
KOD1 160736Z 15011KT 05/05 A3011 RMK A01 T00540046  RH  095%=      5-min Rain = 0
KOD1 160737Z 15011KT 05/05 A3011 RMK A01 T00540046  RH  095%=      5-min Rain = 0
KOD1 160738Z 15010KT 05/05 A3011 RMK A01 T00540046  RH  095%=      5-min Rain = 0
KOD1 160739Z 15011KT 05/05 A3011 RMK A01 T00530045  RH  095%=      5-min Rain = 0
KOD1 160740Z 15011KT 05/05 A3011 RMK A01 T00530046  RH  095%=      5-min Rain = 0
KOD1 160741Z 15010KT 05/05 A3011 RMK A01 T00530046  RH  095%=      5-min Rain = 0
KOD1 160742Z 15010KT 05/05 A3011 RMK A01 T00530046  RH  095%=      5-min Rain = 0
KOD1 160743Z 15010KT 05/05 A3011 RMK A01 T00530045  RH  095%=      5-min Rain = 0
KOD1 160744Z 15011KT 05/05 A3011 RMK A01 T00530045  RH  095%=      5-min Rain = 0
KOD1 160745Z 15010KT 05/05 A3011 RMK A01 T00520045  RH  095%=      5-min Rain = 0
KOD1 160746Z 15010KT 05/05 A3011 RMK A01 T00520045  RH  095%=      5-min Rain = 0
KOD1 160747Z 15010KT 05/04 A3011 RMK A01 T00520044  RH  095%=      5-min Rain = 0
KOD1 160748Z 15010KT 05/04 A3011 RMK A01 T00520044  RH  095%=      5-min Rain = 0
KOD1 160749Z 15011KT 05/05 A3011 RMK A01 T00520045  RH  095%=      5-min Rain = 0
KOD1 160750Z 15012KT 05/05 A3011 RMK A01 T00520045  RH  095%=      5-min Rain = 0
KOD1 160751Z 15011KT 05/05 A3011 RMK A01 T00520045  RH  095%=      5-min Rain = 0
KOD1 160752Z 15012KT 05/05 A3011 RMK A01 T00520045  RH  095%=      5-min Rain = 0
KOD1 160753Z 15011KT 05/05 A3011 RMK A01 T00520045  RH  095%=      5-min Rain = 0
KOD1 160754Z 15011KT 05/05 A3011 RMK A01 T00520045  RH  095%=      5-min Rain = 0
KOD1 160755Z 15011KT 05/05 A3011 RMK A01 T00520045  RH  095%=      5-min Rain = 0
KOD1 160756Z 15010KT 05/05 A3011 RMK A01 T00520045  RH  095%=      5-min Rain = 0
KOD1 160757Z 15011KT 05/05 A3011 RMK A01 T00520045  RH  095%=      5-min Rain = 0
KOD1 160758Z 15011KT 05/05 A3011 RMK A01 T00520045  RH  095%=      5-min Rain = 0
KOD1 160759Z 15010KT 05/05 A3011 RMK A01 T00520045  RH  095%=      5-min Rain = 0
KOD1 160800Z 15011KT 05/05 A3011 RMK A01 T00520045  RH  095%=      5-min Rain = 0
KOD1 160801Z 15011KT 05/05 A3011 RMK A01 T00510045  RH  095%=      5-min Rain = 0
KOD1 160802Z 15010KT 05/05 A3011 RMK A01 T00510045  RH  095%=      5-min Rain = 0
KOD1 160803Z 16010KT 05/04 A3011 RMK A01 T00510044  RH  095%=      5-min Rain = 0
KOD1 160804Z 16010KT 05/04 A3011 RMK A01 T00510044  RH  095%=      5-min Rain = 0
KOD1 160805Z 16011KT 05/04 A3012 RMK A01 T00510044  RH  095%=      5-min Rain = 0
KOD1 160806Z 16010KT 05/04 A3012 RMK A01 T00510044  RH  095%=      5-min Rain = 0
KOD1 160807Z 16010KT 05/04 A3012 RMK A01 T00500043  RH  095%=      5-min Rain = 0
KOD1 160808Z 16010KT 05/04 A3012 RMK A01 T00500043  RH  095%=      5-min Rain = 0
KOD1 160809Z 16011KT 05/04 A3012 RMK A01 T00490042  RH  095%=      5-min Rain = 0
KOD1 160810Z 16010KT 05/04 A3012 RMK A01 T00490042  RH  095%=      5-min Rain = 0
KOD1 160811Z 16010KT 05/04 A3012 RMK A01 T00490043  RH  096%=      5-min Rain = 0
KOD1 160812Z 16010KT 05/04 A3012 RMK A01 T00490042  RH  096%=      5-min Rain = 0
KOD1 160813Z 16010KT 05/04 A3012 RMK A01 T00490043  RH  096%=      5-min Rain = 0
KOD1 160814Z 16010KT 05/04 A3012 RMK A01 T00490043  RH  096%=      5-min Rain = 0
KOD1 160815Z 16011KT 05/04 A3012 RMK A01 T00490043  RH  096%=      5-min Rain = 0
KOD1 160816Z 16010KT 05/04 A3012 RMK A01 T00490043  RH  096%=      5-min Rain = 0
KOD1 160817Z 16010KT 05/04 A3012 RMK A01 T00480042  RH  096%=      5-min Rain = 0
KOD1 160818Z 16009KT 05/04 A3012 RMK A01 T00480042  RH  096%=      5-min Rain = 0
KOD1 160819Z 16010KT 05/04 A3012 RMK A01 T00480042  RH  096%=      5-min Rain = 0
KOD1 160820Z 16010KT 05/04 A3011 RMK A01 T00480043  RH  096%=      5-min Rain = 0
KOD1 160821Z 16010KT 05/04 A3011 RMK A01 T00480042  RH  096%=      5-min Rain = 0
KOD1 160822Z 16010KT 05/04 A3011 RMK A01 T00480042  RH  096%=      5-min Rain = 0
KOD1 160823Z 16011KT 05/04 A3011 RMK A01 T00480042  RH  096%=      5-min Rain = 0
KOD1 160824Z 16011KT 05/04 A3011 RMK A01 T00480042  RH  096%=      5-min Rain = 0
KOD1 160825Z 16010KT 05/04 A3011 RMK A01 T00480042  RH  096%=      5-min Rain = 0
KOD1 160826Z 15010KT 05/04 A3011 RMK A01 T00480042  RH  096%=      5-min Rain = 0
KOD1 160827Z 15010KT 05/04 A3011 RMK A01 T00480042  RH  096%=      5-min Rain = 0
KOD1 160828Z 15010KT 05/04 A3011 RMK A01 T00480042  RH  096%=      5-min Rain = 0
KOD1 160829Z 15010KT 05/04 A3011 RMK A01 T00480043  RH  096%=      5-min Rain = 0
KOD1 160830Z 15009KT 05/04 A3011 RMK A01 T00480043  RH  096%=      5-min Rain = 0
KOD1 160831Z 15010KT 05/04 A3011 RMK A01 T00480043  RH  096%=      5-min Rain = 0
KOD1 160832Z 16011KT 05/04 A3011 RMK A01 T00490044  RH  096%=      5-min Rain = 0
KOD1 160833Z 15010KT 05/04 A3011 RMK A01 T00490044  RH  096%=      5-min Rain = 0
KOD1 160834Z 15010KT 05/04 A3011 RMK A01 T00490043  RH  096%=      5-min Rain = 0
KOD1 160835Z 15010KT 05/04 A3011 RMK A01 T00490043  RH  096%=      5-min Rain = 0
KOD1 160836Z 15011KT 05/04 A3011 RMK A01 T00490044  RH  096%=      5-min Rain = 0
KOD1 160837Z 15011KT 05/04 A3011 RMK A01 T00490043  RH  096%=      5-min Rain = 0
KOD1 160838Z 15012KT 05/04 A3011 RMK A01 T00490043  RH  096%=      5-min Rain = 0
KOD1 160839Z 15012KT 05/04 A3011 RMK A01 T00490044  RH  096%=      5-min Rain = 0
KOD1 160840Z 15012KT 05/04 A3011 RMK A01 T00490044  RH  096%=      5-min Rain = 0
KOD1 160841Z 15013KT 05/04 A3011 RMK A01 T00490044  RH  096%=      5-min Rain = 0
KOD1 160842Z 15012KT 05/04 A3011 RMK A01 T00490044  RH  096%=      5-min Rain = 0
KOD1 160843Z 15012KT 05/04 A3011 RMK A01 T00490044  RH  096%=      5-min Rain = 0
KOD1 160844Z 16011KT 05/04 A3011 RMK A01 T00490044  RH  096%=      5-min Rain = 0
KOD1 160845Z 16011KT 05/04 A3011 RMK A01 T00490044  RH  096%=      5-min Rain = 0
KOD1 160846Z 16010KT 05/04 A3011 RMK A01 T00490043  RH  096%=      5-min Rain = 0
KOD1 160847Z 16011KT 05/04 A3011 RMK A01 T00490043  RH  096%=      5-min Rain = 0
KOD1 160848Z 16011KT 05/04 A3011 RMK A01 T00490043  RH  096%=      5-min Rain = 0
KOD1 160849Z 16011KT 05/04 A3011 RMK A01 T00480043  RH  096%=      5-min Rain = 0
KOD1 160850Z 15010KT 05/04 A3011 RMK A01 T00480043  RH  096%=      5-min Rain = 0
KOD1 160851Z 15012KT 05/04 A3011 RMK A01 T00480043  RH  096%=      5-min Rain = 0
KOD1 160852Z 15010KT 05/04 A3011 RMK A01 T00480043  RH  096%=      5-min Rain = 0
KOD1 160853Z 15009KT 05/04 A3011 RMK A01 T00480042  RH  096%=      5-min Rain = 0
KOD1 160854Z 15010KT 05/04 A3011 RMK A01 T00480042  RH  096%=      5-min Rain = 0
KOD1 160855Z 15009KT 05/04 A3011 RMK A01 T00480042  RH  096%=      5-min Rain = 0
KOD1 160856Z 16009KT 05/04 A3011 RMK A01 T00470042  RH  096%=      5-min Rain = 0
KOD1 160857Z 16009KT 05/04 A3011 RMK A01 T00470042  RH  096%=      5-min Rain = 0
KOD1 160858Z 16009KT 05/04 A3012 RMK A01 T00470041  RH  096%=      5-min Rain = 0
KOD1 160859Z 16009KT 05/04 A3012 RMK A01 T00470041  RH  096%=      5-min Rain = 0
KOD1 160900Z 16009KT 05/04 A3012 RMK A01 T00460041  RH  096%=      5-min Rain = 0
KOD1 160901Z 16009KT 05/04 A3012 RMK A01 T00460041  RH  096%=      5-min Rain = 0
KOD1 160902Z 16008KT 05/04 A3012 RMK A01 T00460040  RH  096%=      5-min Rain = 0
KOD1 160903Z 16008KT 05/04 A3012 RMK A01 T00450040  RH  096%=      5-min Rain = 0
KOD1 160904Z 16009KT 05/04 A3012 RMK A01 T00450040  RH  096%=      5-min Rain = 0
KOD1 160905Z 16009KT 05/04 A3011 RMK A01 T00450040  RH  096%=      5-min Rain = 0
KOD1 160906Z 16009KT 05/04 A3011 RMK A01 T00450040  RH  097%=      5-min Rain = 0
KOD1 160907Z 15009KT 05/04 A3011 RMK A01 T00450040  RH  097%=      5-min Rain = 0
KOD1 160908Z 15009KT 05/04 A3011 RMK A01 T00450041  RH  097%=      5-min Rain = 0
KOD1 160909Z 15009KT 05/04 A3011 RMK A01 T00450040  RH  097%=      5-min Rain = 0
KOD1 160910Z 15010KT 05/04 A3011 RMK A01 T00450040  RH  097%=      5-min Rain = 0
KOD1 160911Z 15010KT 05/04 A3011 RMK A01 T00450040  RH  097%=      5-min Rain = 0
KOD1 160912Z 15010KT 05/04 A3011 RMK A01 T00450040  RH  097%=      5-min Rain = 0
KOD1 160913Z 15010KT 05/04 A3011 RMK A01 T00450040  RH  097%=      5-min Rain = 0
KOD1 160914Z 14011KT 04/04 A301 RMK A01 T00440040  RH  097%=      5-min Rain = 0
KOD1 160915Z 15011KT 04/04 A301 RMK A01 T00440040  RH  097%=      5-min Rain = 0
KOD1 160916Z 15011KT 04/04 A301 RMK A01 T00440040  RH  097%=      5-min Rain = 0
KOD1 160917Z 15011KT 05/04 A301 RMK A01 T00450040  RH  097%=      5-min Rain = 0
KOD1 160918Z 15011KT 05/04 A3011 RMK A01 T00450041  RH  097%=      5-min Rain = 0
KOD1 160919Z 15010KT 05/04 A3011 RMK A01 T00450041  RH  097%=      5-min Rain = 0
KOD1 160920Z 15009KT 05/04 A3011 RMK A01 T00450041  RH  097%=      5-min Rain = 0
KOD1 160921Z 14009KT 05/04 A3011 RMK A01 T00450041  RH  097%=      5-min Rain = 0
KOD1 160922Z 14009KT 05/04 A3011 RMK A01 T00450040  RH  097%=      5-min Rain = 0
KOD1 160923Z 15009KT 05/04 A3011 RMK A01 T00450040  RH  097%=      5-min Rain = 0
KOD1 160924Z 15009KT 05/04 A3011 RMK A01 T00450040  RH  097%=      5-min Rain = 0
KOD1 160925Z 15008KT 04/04 A3011 RMK A01 T00440040  RH  097%=      5-min Rain = 0
KOD1 160926Z 15008KT 04/04 A3011 RMK A01 T00440039  RH  097%=      5-min Rain = 0
KOD1 160927Z 15008KT 04/04 A3011 RMK A01 T00430038  RH  097%=      5-min Rain = 0
KOD1 160928Z 15008KT 04/04 A3011 RMK A01 T00430038  RH  097%=      5-min Rain = 0
KOD1 160929Z 15008KT 04/04 A3011 RMK A01 T00420038  RH  097%=      5-min Rain = 0
KOD1 160930Z 15008KT 04/04 A3011 RMK A01 T00420038  RH  097%=      5-min Rain = 0
KOD1 160931Z 15008KT 04/04 A3011 RMK A01 T00420037  RH  097%=      5-min Rain = 0
KOD1 160932Z 16008KT 04/04 A3011 RMK A01 T00410037  RH  097%=      5-min Rain = 0
KOD1 160933Z 16008KT 04/04 A3011 RMK A01 T00410036  RH  097%=      5-min Rain = 0
KOD1 160934Z 15008KT 04/04 A3011 RMK A01 T00410037  RH  097%=      5-min Rain = 0
KOD1 160935Z 16007KT 04/04 A3011 RMK A01 T00410037  RH  097%=      5-min Rain = 0
KOD1 160936Z 15007KT 04/04 A3011 RMK A01 T00410037  RH  097%=      5-min Rain = 0
KOD1 160937Z 16007KT 04/04 A3011 RMK A01 T00410037  RH  097%=      5-min Rain = 0
KOD1 160938Z 15007KT 04/04 A3011 RMK A01 T00410037  RH  097%=      5-min Rain = 0
KOD1 160939Z 16007KT 04/04 A3011 RMK A01 T00410037  RH  097%=      5-min Rain = 0
KOD1 160940Z 16007KT 04/04 A3011 RMK A01 T00410037  RH  097%=      5-min Rain = 0
KOD1 160941Z 16007KT 04/04 A3011 RMK A01 T00410037  RH  097%=      5-min Rain = 0
KOD1 160942Z 15007KT 04/04 A3011 RMK A01 T00410037  RH  097%=      5-min Rain = 0
KOD1 160943Z 16007KT 04/04 A3011 RMK A01 T00400036  RH  097%=      5-min Rain = 0
KOD1 160944Z 16006KT 04/04 A3011 RMK A01 T00400036  RH  097%=      5-min Rain = 0
KOD1 160945Z 16007KT 04/04 A3011 RMK A01 T00400036  RH  097%=      5-min Rain = 0
KOD1 160946Z 16007KT 04/04 A3011 RMK A01 T00400036  RH  097%=      5-min Rain = 0
KOD1 160947Z 16007KT 04/04 A3011 RMK A01 T00400036  RH  097%=      5-min Rain = 0
KOD1 160948Z 16008KT 04/04 A3011 RMK A01 T00410037  RH  098%=      5-min Rain = 0
KOD1 160949Z 16007KT 04/04 A3011 RMK A01 T00410038  RH  098%=      5-min Rain = 0
KOD1 160950Z 16008KT 04/04 A3011 RMK A01 T00410037  RH  098%=      5-min Rain = 0
KOD1 160951Z 16007KT 04/04 A3011 RMK A01 T00410037  RH  098%=      5-min Rain = 0
KOD1 160952Z 16007KT 04/04 A3011 RMK A01 T00400037  RH  097%=      5-min Rain = 0
KOD1 160953Z 16007KT 04/04 A3011 RMK A01 T00400036  RH  097%=      5-min Rain = 0
KOD1 160954Z 16008KT 04/04 A3011 RMK A01 T00400036  RH  097%=      5-min Rain = 0
KOD1 160955Z 16007KT 04/04 A3011 RMK A01 T00400036  RH  097%=      5-min Rain = 0
KOD1 160956Z 16008KT 04/04 A3011 RMK A01 T00390036  RH  097%=      5-min Rain = 0
KOD1 160957Z 16008KT 04/04 A3011 RMK A01 T00390035  RH  097%=      5-min Rain = 0
KOD1 160958Z 15008KT 04/04 A3011 RMK A01 T00390036  RH  098%=      5-min Rain = 0
KOD1 160959Z 16008KT 04/04 A3011 RMK A01 T00390035  RH  098%=      5-min Rain = 0
KOD1 161000Z 16008KT 04/04 A3011 RMK A01 T00390035  RH  098%=      5-min Rain = 0
KOD1 161001Z 16007KT 04/04 A3011 RMK A01 T00390035  RH  098%=      5-min Rain = 0
KOD1 161002Z 16007KT 04/04 A3011 RMK A01 T00380035  RH  098%=      5-min Rain = 0
KOD1 161003Z 15008KT 04/04 A3011 RMK A01 T00380035  RH  098%=      5-min Rain = 0
KOD1 161004Z 16007KT 04/04 A3011 RMK A01 T00390035  RH  098%=      5-min Rain = 0
KOD1 161005Z 15007KT 04/04 A3011 RMK A01 T00390035  RH  098%=      5-min Rain = 0
KOD1 161006Z 16008KT 04/04 A3011 RMK A01 T00390035  RH  098%=      5-min Rain = 0
KOD1 161007Z 16008KT 04/04 A3011 RMK A01 T00390036  RH  098%=      5-min Rain = 0
KOD1 161008Z 16007KT 04/04 A3011 RMK A01 T00390036  RH  098%=      5-min Rain = 0
KOD1 161009Z 16007KT 04/04 A3011 RMK A01 T00390035  RH  098%=      5-min Rain = 0
KOD1 161010Z 16008KT 04/04 A3011 RMK A01 T00390036  RH  098%=      5-min Rain = 0
KOD1 161011Z 16007KT 04/04 A3011 RMK A01 T00390036  RH  098%=      5-min Rain = 0
KOD1 161012Z 16008KT 04/04 A3011 RMK A01 T00380035  RH  098%=      5-min Rain = 0
KOD1 161013Z 16008KT 04/04 A3011 RMK A01 T00380035  RH  098%=      5-min Rain = 0
KOD1 161014Z 16008KT 04/04 A3011 RMK A01 T00380035  RH  098%=      5-min Rain = 0
KOD1 161015Z 16008KT 04/04 A3011 RMK A01 T00380035  RH  098%=      5-min Rain = 0
KOD1 161016Z 16009KT 04/04 A301 RMK A01 T00380035  RH  098%=      5-min Rain = 0
KOD1 161017Z 16008KT 04/04 A301 RMK A01 T00380035  RH  098%=      5-min Rain = 0
KOD1 161018Z 16008KT 04/04 A301 RMK A01 T00380035  RH  098%=      5-min Rain = 0
KOD1 161019Z 16008KT 04/04 A301 RMK A01 T00380035  RH  098%=      5-min Rain = 0
KOD1 161020Z 16009KT 04/04 A301 RMK A01 T00380035  RH  098%=      5-min Rain = 0
KOD1 161021Z 16008KT 04/04 A301 RMK A01 T00390036  RH  098%=      5-min Rain = 0
KOD1 161022Z 16008KT 04/04 A301 RMK A01 T00390036  RH  098%=      5-min Rain = 0
KOD1 161023Z 16008KT 04/04 A301 RMK A01 T00390036  RH  098%=      5-min Rain = 0
KOD1 161024Z 16008KT 04/04 A301 RMK A01 T00390036  RH  098%=      5-min Rain = 0
KOD1 161025Z 16008KT 04/04 A301 RMK A01 T00390036  RH  098%=      5-min Rain = 0
KOD1 161026Z 16009KT 04/04 A301 RMK A01 T00390036  RH  098%=      5-min Rain = 0
KOD1 161027Z 16009KT 04/04 A301 RMK A01 T00390036  RH  098%=      5-min Rain = 0
KOD1 161028Z 16009KT 04/04 A301 RMK A01 T00390036  RH  098%=      5-min Rain = 0
KOD1 161029Z 16008KT 04/04 A301 RMK A01 T00390036  RH  098%=      5-min Rain = 0
KOD1 161030Z 16008KT 04/04 A301 RMK A01 T00390035  RH  098%=      5-min Rain = 0
KOD1 161031Z 16009KT 04/04 A301 RMK A01 T00380035  RH  098%=      5-min Rain = 0
KOD1 161032Z 16008KT 04/04 A301 RMK A01 T00380035  RH  098%=      5-min Rain = 0
KOD1 161033Z 16008KT 04/04 A301 RMK A01 T00380035  RH  098%=      5-min Rain = 0
KOD1 161034Z 16008KT 04/04 A301 RMK A01 T00380035  RH  098%=      5-min Rain = 0
KOD1 161035Z 16008KT 04/04 A301 RMK A01 T00380035  RH  098%=      5-min Rain = 0
KOD1 161036Z 16008KT 04/04 A301 RMK A01 T00380035  RH  098%=      5-min Rain = 0
KOD1 161037Z 16007KT 04/04 A301 RMK A01 T00380035  RH  098%=      5-min Rain = 0
KOD1 161038Z 16007KT 04/04 A301 RMK A01 T00380035  RH  098%=      5-min Rain = 0
KOD1 161039Z 16007KT 04/04 A3009 RMK A01 T00380035  RH  098%=      5-min Rain = 0
KOD1 161040Z 15008KT 04/04 A3009 RMK A01 T00380035  RH  098%=      5-min Rain = 0
KOD1 161041Z 16008KT 04/04 A3009 RMK A01 T00380035  RH  098%=      5-min Rain = 0
KOD1 161042Z 16008KT 04/04 A3009 RMK A01 T00380035  RH  098%=      5-min Rain = 0
KOD1 161043Z 16007KT 04/04 A3009 RMK A01 T00380035  RH  098%=      5-min Rain = 0
KOD1 161044Z 16008KT 04/04 A3009 RMK A01 T00380035  RH  098%=      5-min Rain = 0
KOD1 161045Z 15007KT 04/04 A3009 RMK A01 T00380035  RH  098%=      5-min Rain = 0
KOD1 161046Z 16007KT 04/04 A3009 RMK A01 T00380035  RH  098%=      5-min Rain = 0
KOD1 161047Z 16007KT 04/04 A3009 RMK A01 T00380035  RH  098%=      5-min Rain = 0
KOD1 161048Z 16007KT 04/04 A3009 RMK A01 T00380035  RH  098%=      5-min Rain = 0
KOD1 161049Z 16008KT 04/04 A3009 RMK A01 T00380035  RH  098%=      5-min Rain = 0
KOD1 161050Z 16008KT 04/04 A3009 RMK A01 T00380035  RH  098%=      5-min Rain = 0
KOD1 161051Z 16007KT 04/04 A3009 RMK A01 T00380035  RH  098%=      5-min Rain = 0
KOD1 161052Z 16008KT 04/04 A3009 RMK A01 T00380035  RH  098%=      5-min Rain = 0
KOD1 161053Z 15007KT 04/04 A3008 RMK A01 T00380036  RH  098%=      5-min Rain = 0
KOD1 161054Z 15008KT 04/04 A3008 RMK A01 T00380036  RH  098%=      5-min Rain = 0
KOD1 161055Z 16007KT 04/04 A3008 RMK A01 T00390036  RH  098%=      5-min Rain = 0
KOD1 161056Z 15007KT 04/04 A3008 RMK A01 T00380036  RH  098%=      5-min Rain = 0
KOD1 161057Z 15007KT 04/04 A3008 RMK A01 T00380036  RH  098%=      5-min Rain = 0
KOD1 161058Z 15009KT 04/04 A3008 RMK A01 T00390036  RH  098%=      5-min Rain = 0
KOD1 161059Z 15009KT 04/04 A3008 RMK A01 T00390037  RH  098%=      5-min Rain = 0
KOD1 161100Z 14007KT 04/04 A3008 RMK A01 T00390037  RH  098%=      5-min Rain = 0
KOD1 161101Z 14007KT 04/04 A3008 RMK A01 T00390036  RH  098%=      5-min Rain = 0
KOD1 161102Z 14008KT 04/04 A3008 RMK A01 T00390037  RH  098%=      5-min Rain = 0
KOD1 161103Z 14007KT 04/04 A3008 RMK A01 T00390036  RH  098%=      5-min Rain = 0
KOD1 161104Z 14006KT 04/04 A3008 RMK A01 T00390036  RH  098%=      5-min Rain = 0
KOD1 161105Z 14006KT 04/04 A3008 RMK A01 T00380035  RH  098%=      5-min Rain = 0
KOD1 161106Z 14007KT 04/04 A3008 RMK A01 T00380036  RH  098%=      5-min Rain = 0
KOD1 161107Z 14007KT 04/04 A3008 RMK A01 T00380036  RH  098%=      5-min Rain = 0
KOD1 161108Z 15007KT 04/04 A3008 RMK A01 T00380036  RH  098%=      5-min Rain = 0
KOD1 161109Z 14008KT 04/04 A3008 RMK A01 T00380036  RH  098%=      5-min Rain = 0
KOD1 161110Z 15009KT 04/04 A3008 RMK A01 T00380036  RH  098%=      5-min Rain = 0
KOD1 161111Z 15008KT 04/04 A3008 RMK A01 T00390037  RH  098%=      5-min Rain = 0
KOD1 161112Z 15007KT 04/04 A3008 RMK A01 T00390037  RH  099%=      5-min Rain = 0
KOD1 161113Z 16008KT 04/04 A3008 RMK A01 T00390036  RH  098%=      5-min Rain = 0
KOD1 161114Z 15008KT 04/04 A3008 RMK A01 T00390036  RH  098%=      5-min Rain = 0
KOD1 161115Z 15009KT 04/04 A3008 RMK A01 T00390036  RH  098%=      5-min Rain = 0
KOD1 161116Z 15009KT 04/04 A3008 RMK A01 T00390037  RH  099%=      5-min Rain = 0
KOD1 161117Z 15008KT 04/04 A3008 RMK A01 T00390037  RH  098%=      5-min Rain = 0
KOD1 161118Z 15008KT 04/04 A3008 RMK A01 T00390036  RH  098%=      5-min Rain = 0
KOD1 161119Z 15008KT 04/04 A3008 RMK A01 T00390036  RH  098%=      5-min Rain = 0
KOD1 161120Z 15007KT 04/04 A3008 RMK A01 T00390036  RH  098%=      5-min Rain = 0
KOD1 161121Z 14008KT 04/04 A3008 RMK A01 T00390036  RH  098%=      5-min Rain = 0
KOD1 161122Z 15008KT 04/04 A3008 RMK A01 T00390037  RH  098%=      5-min Rain = 0
KOD1 161123Z 15008KT 04/04 A3008 RMK A01 T00390037  RH  098%=      5-min Rain = 0
KOD1 161124Z 15007KT 04/04 A3008 RMK A01 T00390037  RH  098%=      5-min Rain = 0
KOD1 161125Z 16007KT 04/04 A3008 RMK A01 T00390037  RH  098%=      5-min Rain = 0
KOD1 161126Z 16006KT 04/04 A3008 RMK A01 T00390037  RH  099%=      5-min Rain = 0
KOD1 161127Z 16007KT 04/04 A3008 RMK A01 T00390037  RH  098%=      5-min Rain = 0
KOD1 161128Z 16008KT 04/04 A3008 RMK A01 T00390037  RH  098%=      5-min Rain = 0
KOD1 161129Z 16008KT 04/04 A3008 RMK A01 T00390037  RH  098%=      5-min Rain = 0
KOD1 161130Z 16008KT 04/04 A3008 RMK A01 T00390037  RH  099%=      5-min Rain = 0
KOD1 161131Z 16008KT 04/04 A3008 RMK A01 T00390037  RH  098%=      5-min Rain = 0
KOD1 161132Z 16008KT 04/04 A3008 RMK A01 T00390037  RH  098%=      5-min Rain = 0
KOD1 161133Z 16008KT 04/04 A3008 RMK A01 T00390037  RH  098%=      5-min Rain = 0
KOD1 161134Z 17008KT 04/04 A3008 RMK A01 T00390037  RH  099%=      5-min Rain = 0
KOD1 161135Z 17008KT 04/04 A3009 RMK A01 T00400038  RH  099%=      5-min Rain = 0
KOD1 161136Z 18009KT 04/04 A3009 RMK A01 T00400038  RH  099%=      5-min Rain = 0
KOD1 161137Z 18010KT 04/04 A3009 RMK A01 T00410040  RH  099%=      5-min Rain = 0
KOD1 161138Z 18009KT 04/04 A3009 RMK A01 T00420041  RH  100%=      5-min Rain = 0
KOD1 161139Z 18009KT 04/04 A3009 RMK A01 T00420041  RH  100%=      5-min Rain = 0
KOD1 161140Z 18010KT 04/04 A3009 RMK A01 T00420041  RH  099%=      5-min Rain = 0
KOD1 161141Z 18010KT 04/04 A3009 RMK A01 T00420041  RH  099%=      5-min Rain = 0
KOD1 161142Z 18010KT 04/04 A3009 RMK A01 T00420040  RH  099%=      5-min Rain = 0
KOD1 161143Z 18010KT 04/04 A3008 RMK A01 T00420040  RH  099%=      5-min Rain = 0
KOD1 161144Z 18010KT 04/04 A3008 RMK A01 T00420040  RH  099%=      5-min Rain = 0
KOD1 161145Z 17010KT 04/04 A3008 RMK A01 T00420040  RH  099%=      5-min Rain = 0
KOD1 161146Z 18010KT 04/04 A3008 RMK A01 T00420040  RH  099%=      5-min Rain = 0
KOD1 161147Z 18010KT 04/04 A3008 RMK A01 T00420040  RH  099%=      5-min Rain = 0
KOD1 161148Z 18010KT 04/04 A3008 RMK A01 T00430041  RH  099%=      5-min Rain = 0
KOD1 161149Z 17009KT 04/04 A3008 RMK A01 T00430041  RH  099%=      5-min Rain = 0
KOD1 161150Z 18010KT 04/04 A3008 RMK A01 T00430041  RH  099%=      5-min Rain = 0
KOD1 161151Z 18009KT 04/04 A3008 RMK A01 T00430041  RH  099%=      5-min Rain = 0
KOD1 161152Z 17009KT 04/04 A3008 RMK A01 T00430041  RH  099%=      5-min Rain = 0
KOD1 161153Z 17010KT 04/04 A3008 RMK A01 T00430041  RH  099%=      5-min Rain = 0
KOD1 161154Z 18011KT 04/04 A3008 RMK A01 T00430041  RH  099%=      5-min Rain = 0
KOD1 161155Z 17010KT 04/04 A3008 RMK A01 T00430041  RH  099%=      5-min Rain = 0
KOD1 161156Z 18011KT 04/04 A3008 RMK A01 T00430041  RH  099%=      5-min Rain = 0
KOD1 161157Z 17011KT 04/04 A3008 RMK A01 T00440042  RH  099%=      5-min Rain = 0
KOD1 161158Z 18011KT 04/04 A3009 RMK A01 T00440042  RH  099%=      5-min Rain = 0
KOD1 161159Z 18010KT 04/04 A3009 RMK A01 T00440042  RH  099%=      5-min Rain = 0
KOD1 161200Z 18009KT 04/04 A3009 RMK A01 T00440041  RH  098%=      5-min Rain = 0
KOD1 161201Z 17010KT 04/04 A3008 RMK A01 T00430041  RH  098%=      5-min Rain = 0
KOD1 161202Z 18010KT 04/04 A3008 RMK A01 T00430041  RH  098%=      5-min Rain = 0
KOD1 161203Z 17010KT 04/04 A3008 RMK A01 T00430041  RH  098%=      5-min Rain = 0
KOD1 161204Z 18010KT 04/04 A3008 RMK A01 T00430040  RH  098%=      5-min Rain = 0
KOD1 161205Z 17010KT 04/04 A3008 RMK A01 T00430040  RH  098%=      5-min Rain = 0
KOD1 161206Z 18010KT 04/04 A3008 RMK A01 T00430041  RH  098%=      5-min Rain = 0
KOD1 161207Z 18010KT 04/04 A3008 RMK A01 T00430040  RH  098%=      5-min Rain = 0
KOD1 161208Z 18009KT 04/04 A3008 RMK A01 T00430040  RH  098%=      5-min Rain = 0
KOD1 161209Z 17009KT 04/04 A3008 RMK A01 T00430040  RH  098%=      5-min Rain = 0
KOD1 161210Z 18009KT 04/04 A3008 RMK A01 T00420039  RH  098%=      5-min Rain = 0
KOD1 161211Z 18010KT 04/04 A3009 RMK A01 T00420039  RH  098%=      5-min Rain = 0
KOD1 161212Z 19011KT 04/04 A3009 RMK A01 T00420039  RH  098%=      5-min Rain = 0
KOD1 161213Z 19010KT 04/04 A3009 RMK A01 T00420040  RH  098%=      5-min Rain = 0
KOD1 161214Z 19009KT 04/04 A3009 RMK A01 T00420039  RH  098%=      5-min Rain = 0
KOD1 161215Z 19009KT 04/04 A3009 RMK A01 T00420040  RH  098%=      5-min Rain = 0
KOD1 161216Z 19009KT 04/04 A3009 RMK A01 T00420039  RH  098%=      5-min Rain = 0
KOD1 161217Z 19009KT 04/04 A3009 RMK A01 T00420039  RH  098%=      5-min Rain = 0
KOD1 161218Z 19009KT 04/04 A3009 RMK A01 T00420039  RH  098%=      5-min Rain = 0
KOD1 161219Z 19009KT 04/04 A3009 RMK A01 T00420039  RH  098%=      5-min Rain = 0
KOD1 161220Z 18009KT 04/04 A3009 RMK A01 T00420039  RH  098%=      5-min Rain = 0
KOD1 161221Z 19009KT 04/04 A3009 RMK A01 T00420039  RH  098%=      5-min Rain = 0
KOD1 161222Z 19010KT 04/04 A3009 RMK A01 T00420039  RH  098%=      5-min Rain = 0
KOD1 161223Z 19007KT 04/04 A301 RMK A01 T00420039  RH  098%=      5-min Rain = 0
KOD1 161224Z 20008KT 04/04 A301 RMK A01 T00420039  RH  098%=      5-min Rain = 0
KOD1 161225Z 20008KT 04/04 A301 RMK A01 T00420039  RH  098%=      5-min Rain = 0
KOD1 161226Z 20008KT 04/04 A301 RMK A01 T00420039  RH  098%=      5-min Rain = 0
KOD1 161227Z 20008KT 04/04 A301 RMK A01 T00420039  RH  098%=      5-min Rain = 0
KOD1 161228Z 20009KT 04/04 A301 RMK A01 T00420039  RH  098%=      5-min Rain = 0
KOD1 161229Z 20008KT 04/04 A301 RMK A01 T00420039  RH  098%=      5-min Rain = 0
KOD1 161230Z 19008KT 04/04 A301 RMK A01 T00420039  RH  098%=      5-min Rain = 0
KOD1 161231Z 19008KT 04/04 A301 RMK A01 T00410039  RH  098%=      5-min Rain = 0
KOD1 161232Z 19009KT 04/04 A301 RMK A01 T00420039  RH  098%=      5-min Rain = 0
KOD1 161233Z 19009KT 04/04 A301 RMK A01 T00420039  RH  098%=      5-min Rain = 0
KOD1 161234Z 19009KT 04/04 A301 RMK A01 T00420039  RH  098%=      5-min Rain = 0
KOD1 161235Z 19009KT 04/04 A301 RMK A01 T00420039  RH  098%=      5-min Rain = 0
KOD1 161236Z 19009KT 04/04 A301 RMK A01 T00420039  RH  098%=      5-min Rain = 0
KOD1 161237Z 18009KT 04/04 A301 RMK A01 T00420039  RH  098%=      5-min Rain = 0
KOD1 161238Z 18009KT 04/04 A301 RMK A01 T00420039  RH  098%=      5-min Rain = 0
KOD1 161239Z 18008KT 04/04 A301 RMK A01 T00420038  RH  098%=      5-min Rain = 0
KOD1 161240Z 18009KT 04/04 A301 RMK A01 T00410038  RH  098%=      5-min Rain = 0
KOD1 161241Z 18009KT 04/04 A301 RMK A01 T00400037  RH  098%=      5-min Rain = 0
KOD1 161242Z 18008KT 04/04 A301 RMK A01 T00390036  RH  098%=      5-min Rain = 0
KOD1 161243Z 18009KT 04/04 A301 RMK A01 T00390035  RH  098%=      5-min Rain = 0
KOD1 161244Z 18009KT 04/04 A301 RMK A01 T00390035  RH  098%=      5-min Rain = 0
KOD1 161245Z 18008KT 04/04 A301 RMK A01 T00380035  RH  098%=      5-min Rain = 0
KOD1 161246Z 17009KT 04/04 A3009 RMK A01 T00380035  RH  098%=      5-min Rain = 0
KOD1 161247Z 17009KT 04/04 A3009 RMK A01 T00390036  RH  098%=      5-min Rain = 0
KOD1 161248Z 17009KT 04/04 A3009 RMK A01 T00390036  RH  098%=      5-min Rain = 0
KOD1 161249Z 17010KT 04/04 A3009 RMK A01 T00390036  RH  098%=      5-min Rain = 0
KOD1 161250Z 17009KT 04/04 A3009 RMK A01 T00390036  RH  098%=      5-min Rain = 0
KOD1 161251Z 17009KT 04/04 A3009 RMK A01 T00390036  RH  098%=      5-min Rain = 0
KOD1 161252Z 17009KT 04/04 A3009 RMK A01 T00390036  RH  098%=      5-min Rain = 0
KOD1 161253Z 17010KT 04/04 A3009 RMK A01 T00390037  RH  098%=      5-min Rain = 0
KOD1 161254Z 17009KT 04/04 A3009 RMK A01 T00400038  RH  098%=      5-min Rain = 0
KOD1 161255Z 17009KT 04/04 A3009 RMK A01 T00410039  RH  099%=      5-min Rain = 0
KOD1 161256Z 17007KT 04/04 A301 RMK A01 T00410039  RH  098%=      5-min Rain = 0
KOD1 161257Z 17008KT 04/04 A301 RMK A01 T00400038  RH  098%=      5-min Rain = 0
KOD1 161258Z 17008KT 04/04 A301 RMK A01 T00410038  RH  098%=      5-min Rain = 0
KOD1 161259Z 17009KT 04/04 A301 RMK A01 T00410038  RH  098%=      5-min Rain = 0
KOD1 161300Z 17008KT 04/04 A301 RMK A01 T00410038  RH  098%=      5-min Rain = 0
KOD1 161301Z 17007KT 04/04 A301 RMK A01 T00410038  RH  098%=      5-min Rain = 0
KOD1 161302Z 17009KT 04/04 A301 RMK A01 T00410038  RH  098%=      5-min Rain = 0
KOD1 161303Z 16007KT 04/04 A3009 RMK A01 T00410038  RH  098%=      5-min Rain = 0
KOD1 161304Z 16007KT 04/04 A3009 RMK A01 T00410038  RH  098%=      5-min Rain = 0
KOD1 161305Z 16006KT 04/04 A3009 RMK A01 T00400037  RH  098%=      5-min Rain = 0
KOD1 161306Z 16007KT 04/04 A3009 RMK A01 T00390036  RH  098%=      5-min Rain = 0
KOD1 161307Z 16007KT 04/04 A3009 RMK A01 T00380035  RH  098%=      5-min Rain = 0
KOD1 161308Z 16008KT 04/03 A3009 RMK A01 T00380034  RH  098%=      5-min Rain = 0
KOD1 161309Z 17008KT 04/03 A3009 RMK A01 T00370034  RH  098%=      5-min Rain = 0
KOD1 161310Z 17007KT 04/03 A3009 RMK A01 T00370034  RH  098%=      5-min Rain = 0
KOD1 161311Z 17007KT 04/03 A3009 RMK A01 T00370033  RH  098%=      5-min Rain = 0
KOD1 161312Z 17008KT 04/03 A3009 RMK A01 T00370034  RH  098%=      5-min Rain = 0
KOD1 161313Z 17007KT 04/03 A3009 RMK A01 T00370034  RH  098%=      5-min Rain = 0
KOD1 161314Z 16007KT 04/03 A3009 RMK A01 T00360033  RH  098%=      5-min Rain = 0
KOD1 161315Z 16007KT 04/03 A3009 RMK A01 T00350032  RH  098%=      5-min Rain = 0
KOD1 161316Z 16007KT 04/03 A3009 RMK A01 T00350032  RH  098%=      5-min Rain = 0
KOD1 161317Z 16007KT 03/03 A3009 RMK A01 T00340031  RH  098%=      5-min Rain = 0
KOD1 161318Z 16008KT 03/03 A3009 RMK A01 T00340031  RH  098%=      5-min Rain = 0
KOD1 161319Z 16007KT 03/03 A3009 RMK A01 T00340031  RH  098%=      5-min Rain = 0
KOD1 161320Z 16008KT 03/03 A3009 RMK A01 T00330030  RH  098%=      5-min Rain = 0
KOD1 161321Z 16008KT 03/03 A3009 RMK A01 T00330030  RH  098%=      5-min Rain = 0
KOD1 161322Z 16008KT 03/03 A3009 RMK A01 T00330029  RH  098%=      5-min Rain = 0
KOD1 161323Z 17009KT 03/03 A3009 RMK A01 T00320029  RH  098%=      5-min Rain = 0
KOD1 161324Z 16009KT 03/03 A3009 RMK A01 T00320030  RH  098%=      5-min Rain = 0
KOD1 161325Z 16008KT 03/03 A3009 RMK A01 T00320030  RH  098%=      5-min Rain = 0
KOD1 161326Z 16009KT 03/03 A3009 RMK A01 T00320030  RH  098%=      5-min Rain = 0
KOD1 161327Z 16009KT 03/03 A3009 RMK A01 T00320030  RH  098%=      5-min Rain = 0
KOD1 161328Z 16009KT 03/03 A3009 RMK A01 T00320029  RH  098%=      5-min Rain = 0
KOD1 161329Z 16010KT 03/03 A3008 RMK A01 T00320030  RH  098%=      5-min Rain = 0
KOD1 161330Z 16009KT 03/03 A3008 RMK A01 T00320030  RH  098%=      5-min Rain = 0
KOD1 161331Z 16009KT 03/03 A3008 RMK A01 T00320030  RH  098%=      5-min Rain = 0
KOD1 161332Z 16009KT 03/03 A3008 RMK A01 T00320030  RH  098%=      5-min Rain = 0
KOD1 161333Z 16009KT 03/03 A3008 RMK A01 T00320030  RH  098%=      5-min Rain = 0
KOD1 161334Z 16011KT 03/03 A3008 RMK A01 T00320030  RH  099%=      5-min Rain = 0
KOD1 161335Z 16010KT 03/03 A3008 RMK A01 T00330031  RH  099%=      5-min Rain = 0
KOD1 161336Z 16010KT 03/03 A3008 RMK A01 T00330031  RH  099%=      5-min Rain = 0
KOD1 161337Z 16011KT 03/03 A3008 RMK A01 T00330031  RH  099%=      5-min Rain = 0
KOD1 161338Z 16010KT 03/03 A3008 RMK A01 T00330031  RH  099%=      5-min Rain = 0
KOD1 161339Z 16009KT 03/03 A3008 RMK A01 T00330031  RH  099%=      5-min Rain = 0
KOD1 161340Z 16009KT 03/03 A3008 RMK A01 T00320031  RH  099%=      5-min Rain = 0
KOD1 161341Z 16011KT 03/03 A3008 RMK A01 T00330031  RH  099%=      5-min Rain = 0
KOD1 161342Z 16011KT 03/03 A3008 RMK A01 T00330031  RH  099%=      5-min Rain = 0
KOD1 161343Z 16013KT 03/03 A3008 RMK A01 T00330031  RH  099%=      5-min Rain = 0
KOD1 161344Z 17013KT 03/03 A3009 RMK A01 T00330032  RH  099%=      5-min Rain = 0
KOD1 161345Z 17011KT 03/03 A3009 RMK A01 T00330032  RH  099%=      5-min Rain = 0
KOD1 161346Z 18011KT 03/03 A3009 RMK A01 T00330031  RH  099%=      5-min Rain = 0
KOD1 161347Z 18013KT 03/03 A3009 RMK A01 T00330032  RH  099%=      5-min Rain = 0
KOD1 161348Z 18014KT 03/03 A3009 RMK A01 T00340034  RH  100%=      5-min Rain = 0
KOD1 161349Z 18013KT 04/04 A3009 RMK A01 T00350035  RH  100%=      5-min Rain = 0
KOD1 161350Z 18011KT 04/04 A3009 RMK A01 T00350035  RH  100%=      5-min Rain = 0
KOD1 161351Z 18011KT 04/04 A3009 RMK A01 T00350035  RH  100%=      5-min Rain = 0
KOD1 161352Z 18011KT 04/04 A301 RMK A01 T00360036  RH  100%=      5-min Rain = 0
KOD1 161353Z 19010KT 04/04 A301 RMK A01 T00360036  RH  100%=      5-min Rain = 0
KOD1 161354Z 19010KT 04/04 A301 RMK A01 T00370037  RH  100%=      5-min Rain = 0
KOD1 161355Z 19010KT 04/04 A301 RMK A01 T00380038  RH  100%=      5-min Rain = 0
KOD1 161356Z 19010KT 04/04 A301 RMK A01 T00390039  RH  100%=      5-min Rain = 0
KOD1 161357Z 19010KT 04/04 A301 RMK A01 T00390039  RH  100%=      5-min Rain = 0
KOD1 161358Z 19010KT 04/04 A301 RMK A01 T00400040  RH  100%=      5-min Rain = 0
KOD1 161359Z 19010KT 04/04 A301 RMK A01 T00400040  RH  100%=      5-min Rain = 0
KOD1 161400Z 20011KT 04/04 A3011 RMK A01 T00400040  RH  100%=      5-min Rain = 0
KOD1 161401Z 20011KT 04/04 A3011 RMK A01 T00410041  RH  100%=      5-min Rain = 0
KOD1 161402Z 20011KT 04/04 A3011 RMK A01 T00410041  RH  100%=      5-min Rain = 0
KOD1 161403Z 20011KT 04/04 A3011 RMK A01 T00410041  RH  100%=      5-min Rain = 0
KOD1 161404Z 20010KT 04/04 A3011 RMK A01 T00410041  RH  100%=      5-min Rain = 0
KOD1 161405Z 20011KT 04/04 A3011 RMK A01 T00410041  RH  100%=      5-min Rain = 0
KOD1 161406Z 19010KT 04/04 A3011 RMK A01 T00410041  RH  100%=      5-min Rain = 0
KOD1 161407Z 19012KT 04/04 A3011 RMK A01 T00410041  RH  100%=      5-min Rain = 0
KOD1 161408Z 20010KT 04/04 A3011 RMK A01 T00410041  RH  100%=      5-min Rain = 0
KOD1 161409Z 20012KT 04/04 A3011 RMK A01 T00400041  RH  100%=      5-min Rain = 0
KOD1 161410Z 19012KT 04/04 A3011 RMK A01 T00400040  RH  100%=      5-min Rain = 0
KOD1 161411Z 19012KT 04/04 A301 RMK A01 T00400040  RH  100%=      5-min Rain = 0
KOD1 161412Z 19012KT 04/04 A301 RMK A01 T00400040  RH  100%=      5-min Rain = 0
KOD1 161413Z 19012KT 04/04 A301 RMK A01 T00400040  RH  100%=      5-min Rain = 0
KOD1 161414Z 19013KT 04/04 A301 RMK A01 T00390039  RH  100%=      5-min Rain = 0
KOD1 161415Z 19014KT 04/04 A301 RMK A01 T00390039  RH  100%=      5-min Rain = 0
KOD1 161416Z 19013KT 04/04 A301 RMK A01 T00390039  RH  100%=      5-min Rain = 0
KOD1 161417Z 18011KT 04/04 A301 RMK A01 T00390039  RH  100%=      5-min Rain = 0
KOD1 161418Z 19011KT 04/04 A301 RMK A01 T00390039  RH  100%=      5-min Rain = 0
KOD1 161419Z 19012KT 04/04 A301 RMK A01 T00390039  RH  100%=      5-min Rain = 0
KOD1 161420Z 19010KT 04/04 A301 RMK A01 T00390039  RH  100%=      5-min Rain = 0
KOD1 161421Z 20011KT 04/04 A301 RMK A01 T00390039  RH  100%=      5-min Rain = 0
KOD1 161422Z 20011KT 04/04 A301 RMK A01 T00390039  RH  100%=      5-min Rain = 0
KOD1 161423Z 19012KT 04/04 A301 RMK A01 T00390039  RH  100%=      5-min Rain = 0
KOD1 161424Z 19011KT 04/04 A301 RMK A01 T00390039  RH  100%=      5-min Rain = 0
KOD1 161425Z 19012KT 04/04 A301 RMK A01 T00390039  RH  100%=      5-min Rain = 0
KOD1 161426Z 19012KT 04/04 A301 RMK A01 T00390039  RH  100%=      5-min Rain = 0
KOD1 161427Z 20012KT 04/04 A301 RMK A01 T00390039  RH  100%=      5-min Rain = 0
KOD1 161428Z 19011KT 04/04 A301 RMK A01 T00390039  RH  100%=      5-min Rain = 0
KOD1 161429Z 20010KT 04/04 A301 RMK A01 T00400040  RH  100%=      5-min Rain = 0
KOD1 161430Z 19007KT 04/04 A301 RMK A01 T00400040  RH  100%=      5-min Rain = 0
KOD1 161431Z 19010KT 04/04 A301 RMK A01 T00400040  RH  100%=      5-min Rain = 0
KOD1 161432Z 18012KT 04/04 A301 RMK A01 T00400040  RH  100%=      5-min Rain = 0
KOD1 161433Z 18013KT 04/04 A301 RMK A01 T00400040  RH  100%=      5-min Rain = 0
KOD1 161434Z 19012KT 04/04 A301 RMK A01 T00400040  RH  100%=      5-min Rain = 0
KOD1 161435Z 18009KT 04/04 A3009 RMK A01 T00400040  RH  100%=      5-min Rain = 0
KOD1 161436Z 19010KT 04/04 A301 RMK A01 T00400040  RH  100%=      5-min Rain = 0
KOD1 161437Z 20009KT 04/04 A301 RMK A01 T00410041  RH  100%=      5-min Rain = 0
KOD1 161438Z 19008KT 04/04 A301 RMK A01 T00410041  RH  100%=      5-min Rain = 0
KOD1 161439Z 19008KT 04/04 A301 RMK A01 T00410041  RH  100%=      5-min Rain = 0
KOD1 161440Z 19009KT 04/04 A301 RMK A01 T00420042  RH  100%=      5-min Rain = 0
KOD1 161441Z 19009KT 04/04 A3009 RMK A01 T00420042  RH  100%=      5-min Rain = 0
KOD1 161442Z 19008KT 04/04 A3009 RMK A01 T00420042  RH  100%=      5-min Rain = 0
KOD1 161443Z 19010KT 04/04 A3009 RMK A01 T00430043  RH  100%=      5-min Rain = 0
KOD1 161444Z 19010KT 04/04 A3009 RMK A01 T00430043  RH  100%=      5-min Rain = 0
KOD1 161445Z 19009KT 04/04 A3009 RMK A01 T00430043  RH  100%=      5-min Rain = 0
KOD1 161446Z 20010KT 04/04 A3009 RMK A01 T00430043  RH  100%=      5-min Rain = 0
KOD1 161447Z 18008KT 04/04 A3009 RMK A01 T00430043  RH  100%=      5-min Rain = 0
KOD1 161448Z 19008KT 04/04 A3009 RMK A01 T00440044  RH  100%=      5-min Rain = 0
KOD1 161449Z 19009KT 04/04 A3009 RMK A01 T00440044  RH  100%=      5-min Rain = 0
KOD1 161450Z 20009KT 04/04 A3009 RMK A01 T00440044  RH  100%=      5-min Rain = 0
KOD1 161451Z 19008KT 05/05 A3009 RMK A01 T00450045  RH  100%=      5-min Rain = 0
KOD1 161452Z 19009KT 05/05 A3009 RMK A01 T00450045  RH  100%=      5-min Rain = 0
KOD1 161453Z 19009KT 05/05 A3009 RMK A01 T00450046  RH  100%=      5-min Rain = 0
KOD1 161454Z 20011KT 05/05 A3009 RMK A01 T00460046  RH  100%=      5-min Rain = 0
KOD1 161455Z 19010KT 05/05 A301 RMK A01 T00460046  RH  100%=      5-min Rain = 0
KOD1 161456Z 19010KT 05/05 A301 RMK A01 T00460046  RH  100%=      5-min Rain = 0
KOD1 161457Z 20011KT 05/05 A301 RMK A01 T00460046  RH  100%=      5-min Rain = 0
KOD1 161458Z 19010KT 05/05 A301 RMK A01 T00470047  RH  100%=      5-min Rain = 0
KOD1 161459Z 19010KT 05/05 A301 RMK A01 T00470047  RH  100%=      5-min Rain = 0
KOD1 161500Z 20010KT 05/05 A301 RMK A01 T00480048  RH  100%=      5-min Rain = 0
KOD1 161501Z 20010KT 05/05 A301 RMK A01 T00480048  RH  100%=      5-min Rain = 0
KOD1 161502Z 20009KT 05/05 A301 RMK A01 T00480048  RH  100%=      5-min Rain = 0
KOD1 161503Z 20009KT 05/05 A301 RMK A01 T00480048  RH  100%=      5-min Rain = 0
KOD1 161504Z 19009KT 05/05 A301 RMK A01 T00490049  RH  100%=      5-min Rain = 0
KOD1 161505Z 20009KT 05/05 A301 RMK A01 T00490049  RH  100%=      5-min Rain = 0
KOD1 161506Z 20009KT 05/05 A301 RMK A01 T00490049  RH  100%=      5-min Rain = 0
KOD1 161507Z 19009KT 05/05 A301 RMK A01 T00490049  RH  100%=      5-min Rain = 0
KOD1 161508Z 19009KT 05/05 A301 RMK A01 T00490049  RH  100%=      5-min Rain = 0
KOD1 161509Z 20009KT 05/05 A301 RMK A01 T00500050  RH  100%=      5-min Rain = 0
KOD1 161510Z 19009KT 05/05 A301 RMK A01 T00500050  RH  100%=      5-min Rain = 0
KOD1 161511Z 19009KT 05/05 A301 RMK A01 T00510051  RH  100%=      5-min Rain = 0
KOD1 161512Z 20010KT 05/05 A301 RMK A01 T00510051  RH  100%=      5-min Rain = 0
KOD1 161513Z 20012KT 05/05 A301 RMK A01 T00510051  RH  100%=      5-min Rain = 0
KOD1 161514Z 20011KT 05/05 A301 RMK A01 T00510051  RH  100%=      5-min Rain = 0
KOD1 161515Z 19011KT 05/05 A301 RMK A01 T00510051  RH  100%=      5-min Rain = 0
KOD1 161516Z 20011KT 05/05 A301 RMK A01 T00520052  RH  100%=      5-min Rain = 0
KOD1 161517Z 20011KT 05/05 A301 RMK A01 T00520052  RH  100%=      5-min Rain = 0
KOD1 161518Z 19010KT 05/05 A3009 RMK A01 T00530053  RH  100%=      5-min Rain = 0
KOD1 161519Z 19012KT 05/05 A3009 RMK A01 T00530053  RH  100%=      5-min Rain = 0
KOD1 161520Z 19011KT 05/05 A3009 RMK A01 T00530053  RH  100%=      5-min Rain = 0
KOD1 161521Z 19010KT 05/05 A3009 RMK A01 T00540054  RH  100%=      5-min Rain = 0
KOD1 161522Z 18011KT 05/05 A3009 RMK A01 T00540054  RH  100%=      5-min Rain = 0
KOD1 161523Z 19010KT 06/06 A3009 RMK A01 T00550055  RH  100%=      5-min Rain = 0
KOD1 161524Z 19010KT 06/06 A3009 RMK A01 T00550055  RH  100%=      5-min Rain = 0
KOD1 161525Z 19011KT 06/06 A3009 RMK A01 T00550055  RH  100%=      5-min Rain = 0
KOD1 161526Z 18010KT 06/06 A3009 RMK A01 T00560056  RH  100%=      5-min Rain = 0
KOD1 161527Z 19010KT 06/06 A3009 RMK A01 T00560056  RH  100%=      5-min Rain = 0
KOD1 161528Z 18011KT 06/06 A3009 RMK A01 T00570057  RH  100%=      5-min Rain = 0
KOD1 161529Z 19011KT 06/06 A3009 RMK A01 T00570057  RH  100%=      5-min Rain = 0
KOD1 161530Z 18012KT 06/06 A3009 RMK A01 T00570057  RH  100%=      5-min Rain = 0
KOD1 161531Z 19011KT 06/06 A3009 RMK A01 T00570057  RH  100%=      5-min Rain = 0
KOD1 161532Z 19011KT 06/06 A3009 RMK A01 T00580058  RH  100%=      5-min Rain = 0
KOD1 161533Z 19010KT 06/06 A3009 RMK A01 T00580058  RH  100%=      5-min Rain = 0
KOD1 161534Z 19011KT 06/06 A3009 RMK A01 T00580058  RH  100%=      5-min Rain = 0
KOD1 161535Z 19011KT 06/06 A3009 RMK A01 T00590059  RH  100%=      5-min Rain = 0
KOD1 161536Z 20011KT 06/06 A3009 RMK A01 T00590059  RH  100%=      5-min Rain = 0
KOD1 161537Z 19009KT 06/06 A3009 RMK A01 T00600060  RH  100%=      5-min Rain = 0
KOD1 161538Z 19009KT 06/06 A3009 RMK A01 T00600060  RH  100%=      5-min Rain = 0
KOD1 161539Z 19012KT 06/06 A3009 RMK A01 T00600060  RH  100%=      5-min Rain = 0
KOD1 161540Z 19011KT 06/06 A3009 RMK A01 T00590059  RH  100%=      5-min Rain = 0
KOD1 161541Z 19013KT 06/06 A3009 RMK A01 T00590059  RH  100%=      5-min Rain = 0
KOD1 161542Z 19013KT 06/06 A3009 RMK A01 T00590059  RH  100%=      5-min Rain = 0
KOD1 161543Z 19012KT 06/06 A3009 RMK A01 T00590059  RH  100%=      5-min Rain = 0
KOD1 161544Z 19012KT 06/06 A3009 RMK A01 T00590059  RH  100%=      5-min Rain = 0
KOD1 161545Z 19011KT 06/06 A3009 RMK A01 T00590059  RH  100%=      5-min Rain = 0
KOD1 161546Z 20010KT 06/06 A301 RMK A01 T00600060  RH  100%=      5-min Rain = 0
KOD1 161547Z 20010KT 06/06 A301 RMK A01 T00600060  RH  100%=      5-min Rain = 0
KOD1 161548Z 20009KT 06/06 A301 RMK A01 T00610061  RH  100%=      5-min Rain = 0
KOD1 161549Z 20012KT 06/06 A301 RMK A01 T00610061  RH  100%=      5-min Rain = 0
KOD1 161550Z 20011KT 06/06 A301 RMK A01 T00610061  RH  100%=      5-min Rain = 0
KOD1 161551Z 20011KT 06/06 A301 RMK A01 T00610061  RH  100%=      5-min Rain = 0
KOD1 161552Z 20010KT 06/06 A301 RMK A01 T00620062  RH  100%=      5-min Rain = 0
KOD1 161553Z 20010KT 06/06 A301 RMK A01 T00630063  RH  100%=      5-min Rain = 0
KOD1 161554Z 21012KT 06/06 A301 RMK A01 T00630063  RH  100%=      5-min Rain = 0
KOD1 161555Z 21012KT 06/06 A3011 RMK A01 T00640064  RH  100%=      5-min Rain = 0
KOD1 161556Z 21011KT 06/06 A3011 RMK A01 T00640064  RH  100%=      5-min Rain = 0
KOD1 161557Z 21012KT 06/06 A3011 RMK A01 T00640064  RH  100%=      5-min Rain = 0
KOD1 161558Z 20012KT 06/06 A3011 RMK A01 T00640064  RH  100%=      5-min Rain = 0
KOD1 161559Z 21010KT 06/06 A3011 RMK A01 T00640064  RH  100%=      5-min Rain = 0
KOD1 161600Z 20012KT 06/06 A301 RMK A01 T00640064  RH  100%=      5-min Rain = 0
KOD1 161601Z 19011KT 06/06 A301 RMK A01 T00640064  RH  100%=      5-min Rain = 0
KOD1 161602Z 20011KT 07/07 A301 RMK A01 T00650065  RH  100%=      5-min Rain = 0
KOD1 161603Z 19011KT 07/07 A301 RMK A01 T00650065  RH  100%=      5-min Rain = 0
KOD1 161604Z 20012KT 06/07 A301 RMK A01 T00640065  RH  100%=      5-min Rain = 0
KOD1 161605Z 20010KT 07/07 A301 RMK A01 T00650065  RH  100%=      5-min Rain = 0
KOD1 161606Z 20010KT 07/07 A301 RMK A01 T00650066  RH  100%=      5-min Rain = 0
KOD1 161607Z 20011KT 07/07 A3011 RMK A01 T00660066  RH  100%=      5-min Rain = 0
KOD1 161608Z 20010KT 07/07 A3011 RMK A01 T00660066  RH  100%=      5-min Rain = 0
KOD1 161609Z 21011KT 07/07 A3011 RMK A01 T00660066  RH  100%=      5-min Rain = 0
KOD1 161610Z 20011KT 07/07 A3011 RMK A01 T00660066  RH  100%=      5-min Rain = 0
KOD1 161611Z 20011KT 07/07 A3011 RMK A01 T00660066  RH  100%=      5-min Rain = 0
KOD1 161612Z 20011KT 07/07 A3011 RMK A01 T00660066  RH  100%=      5-min Rain = 0
KOD1 161613Z 20011KT 07/07 A3011 RMK A01 T00660066  RH  100%=      5-min Rain = 0
KOD1 161614Z 19010KT 07/07 A3011 RMK A01 T00670067  RH  100%=      5-min Rain = 0
KOD1 161615Z 19010KT 07/07 A3011 RMK A01 T00670067  RH  100%=      5-min Rain = 0
KOD1 161616Z 19010KT 07/07 A3011 RMK A01 T00680068  RH  100%=      5-min Rain = 0
KOD1 161617Z 19011KT 07/07 A3011 RMK A01 T00680068  RH  100%=      5-min Rain = 0
KOD1 161618Z 18012KT 07/07 A3011 RMK A01 T00680068  RH  100%=      5-min Rain = 0
KOD1 161619Z 19011KT 07/07 A3011 RMK A01 T00690069  RH  100%=      5-min Rain = 0
KOD1 161620Z 19012KT 07/07 A3011 RMK A01 T00690069  RH  100%=      5-min Rain = 0
KOD1 161621Z 19010KT 07/07 A3011 RMK A01 T00690069  RH  100%=      5-min Rain = 0
KOD1 161622Z 19013KT 07/07 A3011 RMK A01 T00690069  RH  100%=      5-min Rain = 0
KOD1 161623Z 20011KT 07/07 A3011 RMK A01 T00680068  RH  100%=      5-min Rain = 0
KOD1 161624Z 19011KT 07/07 A3011 RMK A01 T00690069  RH  100%=      5-min Rain = 0
KOD1 161625Z 19011KT 07/07 A3011 RMK A01 T00690069  RH  100%=      5-min Rain = 0
KOD1 161626Z 19010KT 07/07 A3011 RMK A01 T00690069  RH  100%=      5-min Rain = 0
KOD1 161627Z 19011KT 07/07 A3011 RMK A01 T00690069  RH  100%=      5-min Rain = 0
KOD1 161628Z 19011KT 07/07 A301 RMK A01 T00690069  RH  100%=      5-min Rain = 0
KOD1 161629Z 19010KT 07/07 A301 RMK A01 T00700070  RH  100%=      5-min Rain = 0
KOD1 161630Z 19010KT 07/07 A3011 RMK A01 T00700070  RH  100%=      5-min Rain = 0
KOD1 161631Z 20011KT 07/07 A3011 RMK A01 T00710071  RH  100%=      5-min Rain = 0
KOD1 161632Z 20009KT 07/07 A3011 RMK A01 T00710071  RH  100%=      5-min Rain = 0
KOD1 161633Z 20010KT 07/07 A3011 RMK A01 T00730073  RH  100%=      5-min Rain = 0
KOD1 161634Z 19009KT 07/07 A3011 RMK A01 T00730073  RH  100%=      5-min Rain = 0
KOD1 161635Z 19009KT 07/07 A3011 RMK A01 T00740074  RH  100%=      5-min Rain = 0
KOD1 161636Z 19010KT 08/08 A3011 RMK A01 T00750075  RH  100%=      5-min Rain = 0
KOD1 161637Z 19010KT 08/08 A3011 RMK A01 T00760076  RH  100%=      5-min Rain = 0
KOD1 161638Z 20009KT 08/08 A3011 RMK A01 T00770077  RH  100%=      5-min Rain = 0
KOD1 161639Z 20009KT 08/08 A3011 RMK A01 T00780078  RH  100%=      5-min Rain = 0
KOD1 161640Z 19009KT 08/08 A3011 RMK A01 T00780078  RH  100%=      5-min Rain = 0
KOD1 161641Z 19008KT 08/08 A3011 RMK A01 T00770077  RH  100%=      5-min Rain = 0
KOD1 161642Z 20007KT 08/08 A3011 RMK A01 T00780078  RH  100%=      5-min Rain = 0
KOD1 161643Z 20006KT 08/08 A3011 RMK A01 T00790080  RH  100%=      5-min Rain = 0
KOD1 161644Z 20007KT 08/08 A3011 RMK A01 T00800080  RH  100%=      5-min Rain = 0
KOD1 161645Z 20007KT 08/08 A3011 RMK A01 T00810081  RH  100%=      5-min Rain = 0
KOD1 161646Z 21007KT 08/08 A3011 RMK A01 T00810081  RH  100%=      5-min Rain = 0
KOD1 161647Z 21008KT 08/08 A3011 RMK A01 T00820082  RH  100%=      5-min Rain = 0
KOD1 161648Z 21008KT 08/08 A3011 RMK A01 T00830083  RH  100%=      5-min Rain = 0
KOD1 161649Z 21008KT 08/08 A3011 RMK A01 T00840083  RH  100%=      5-min Rain = 0
KOD1 161650Z 20008KT 08/08 A3011 RMK A01 T00840084  RH  100%=      5-min Rain = 0
KOD1 161651Z 20008KT 09/09 A3011 RMK A01 T00870087  RH  100%=      5-min Rain = 0
KOD1 161652Z 19010KT 09/09 A3011 RMK A01 T00880087  RH  099%=      5-min Rain = 0
KOD1 161653Z 19009KT 09/09 A3011 RMK A01 T00880085  RH  098%=      5-min Rain = 0
KOD1 161654Z 19008KT 09/09 A3011 RMK A01 T00890086  RH  098%=      5-min Rain = 0
KOD1 161655Z 18008KT 09/09 A3011 RMK A01 T00890086  RH  097%=      5-min Rain = 0
KOD1 161656Z 19007KT 09/09 A3011 RMK A01 T00900085  RH  097%=      5-min Rain = 0
KOD1 161657Z 20008KT 09/09 A3011 RMK A01 T00910085  RH  096%=      5-min Rain = 0
KOD1 161658Z 19008KT 09/08 A3011 RMK A01 T00900083  RH  095%=      5-min Rain = 0
KOD1 161659Z 19007KT 09/08 A3011 RMK A01 T00900083  RH  095%=      5-min Rain = 0
KOD1 161700Z 20007KT 09/08 A3011 RMK A01 T00910083  RH  095%=      5-min Rain = 0
KOD1 161701Z 20007KT 09/08 A3011 RMK A01 T00910082  RH  094%=      5-min Rain = 0
KOD1 161702Z 20007KT 09/08 A3011 RMK A01 T00900081  RH  094%=      5-min Rain = 0
KOD1 161703Z 20007KT 09/08 A3011 RMK A01 T00910083  RH  094%=      5-min Rain = 0
KOD1 161704Z 18008KT 09/09 A3011 RMK A01 T00930086  RH  095%=      5-min Rain = 0
KOD1 161705Z 19009KT 10/09 A3011 RMK A01 T00950085  RH  094%=      5-min Rain = 0
KOD1 161706Z 19009KT 10/09 A3011 RMK A01 T00960086  RH  093%=      5-min Rain = 0
KOD1 161707Z 18009KT 10/09 A301 RMK A01 T00970085  RH  092%=      5-min Rain = 0
KOD1 161708Z 19010KT 10/09 A301 RMK A01 T00980085  RH  092%=      5-min Rain = 0
KOD1 161709Z 18009KT 10/09 A301 RMK A01 T00990085  RH  091%=      5-min Rain = 0
KOD1 161710Z 19008KT 10/09 A301 RMK A01 T01000085  RH  091%=      5-min Rain = 0
KOD1 161711Z 19010KT 10/09 A301 RMK A01 T01010086  RH  090%=      5-min Rain = 0
KOD1 161712Z 19009KT 10/08 A301 RMK A01 T01010084  RH  089%=      5-min Rain = 0
KOD1 161713Z 19009KT 10/09 A301 RMK A01 T01020085  RH  089%=      5-min Rain = 0
KOD1 161714Z 18010KT 10/08 A301 RMK A01 T01030084  RH  088%=      5-min Rain = 0
KOD1 161715Z 18010KT 10/08 A301 RMK A01 T01030084  RH  087%=      5-min Rain = 0
KOD1 161716Z 18009KT 10/08 A301 RMK A01 T01040084  RH  087%=      5-min Rain = 0
KOD1 161717Z 18009KT 11/09 A301 RMK A01 T01050085  RH  087%=      5-min Rain = 0
KOD1 161718Z 18010KT 11/09 A301 RMK A01 T01060085  RH  087%=      5-min Rain = 0
KOD1 161719Z 18010KT 11/09 A301 RMK A01 T01070086  RH  087%=      5-min Rain = 0
KOD1 161720Z 18011KT 11/09 A301 RMK A01 T01070085  RH  086%=      5-min Rain = 0
KOD1 161721Z 18010KT 11/09 A301 RMK A01 T01090087  RH  086%=      5-min Rain = 0
KOD1 161722Z 18011KT 11/09 A301 RMK A01 T01100086  RH  085%=      5-min Rain = 0
KOD1 161723Z 18011KT 11/09 A301 RMK A01 T01100085  RH  085%=      5-min Rain = 0
KOD1 161724Z 18010KT 11/08 A301 RMK A01 T01100084  RH  084%=      5-min Rain = 0
KOD1 161725Z 18012KT 11/09 A301 RMK A01 T01110086  RH  085%=      5-min Rain = 0
KOD1 161726Z 18012KT 11/09 A301 RMK A01 T01120086  RH  084%=      5-min Rain = 0
KOD1 161727Z 19011KT 11/08 A301 RMK A01 T01120084  RH  083%=      5-min Rain = 0
KOD1 161728Z 19010KT 11/09 A301 RMK A01 T01130086  RH  084%=      5-min Rain = 0
KOD1 161729Z 19011KT 11/08 A301 RMK A01 T01140084  RH  082%=      5-min Rain = 0
KOD1 161730Z 19010KT 11/08 A301 RMK A01 T01140083  RH  082%=      5-min Rain = 0
KOD1 161731Z 19010KT 11/08 A301 RMK A01 T01140084  RH  082%=      5-min Rain = 0
KOD1 161732Z 18010KT 11/09 A301 RMK A01 T01140086  RH  083%=      5-min Rain = 0
KOD1 161733Z 19011KT 12/09 A3009 RMK A01 T01150086  RH  082%=      5-min Rain = 0
KOD1 161734Z 18011KT 12/09 A301 RMK A01 T01150085  RH  082%=      5-min Rain = 0
KOD1 161735Z 18011KT 12/09 A301 RMK A01 T01160087  RH  082%=      5-min Rain = 0
KOD1 161736Z 17009KT 12/09 A3009 RMK A01 T01160085  RH  081%=      5-min Rain = 0
KOD1 161737Z 18009KT 12/09 A3009 RMK A01 T01180091  RH  083%=      5-min Rain = 0
KOD1 161738Z 19011KT 12/09 A3009 RMK A01 T01190085  RH  080%=      5-min Rain = 0
KOD1 161739Z 19011KT 12/08 A3009 RMK A01 T01190084  RH  079%=      5-min Rain = 0
KOD1 161740Z 19008KT 12/08 A3009 RMK A01 T01200084  RH  079%=      5-min Rain = 0
KOD1 161741Z 20009KT 12/08 A3009 RMK A01 T01210084  RH  078%=      5-min Rain = 0
KOD1 161742Z 20010KT 12/09 A3009 RMK A01 T01210085  RH  079%=      5-min Rain = 0
KOD1 161743Z 20010KT 12/09 A3009 RMK A01 T01220086  RH  079%=      5-min Rain = 0
KOD1 161744Z 19008KT 12/09 A3009 RMK A01 T01220086  RH  078%=      5-min Rain = 0
KOD1 161745Z 20008KT 12/09 A3009 RMK A01 T01230087  RH  079%=      5-min Rain = 0
KOD1 161746Z 19009KT 12/09 A3009 RMK A01 T01240088  RH  079%=      5-min Rain = 0
KOD1 161747Z 18011KT 13/09 A3009 RMK A01 T01250086  RH  077%=      5-min Rain = 0
KOD1 161748Z 18008KT 13/09 A3009 RMK A01 T01250086  RH  077%=      5-min Rain = 0
KOD1 161749Z 17010KT 13/09 A3009 RMK A01 T01260088  RH  078%=      5-min Rain = 0
KOD1 161750Z 17008KT 13/09 A3009 RMK A01 T01260087  RH  077%=      5-min Rain = 0
KOD1 161751Z 17009KT 13/09 A3008 RMK A01 T01270088  RH  077%=      5-min Rain = 0
KOD1 161752Z 18010KT 13/09 A3008 RMK A01 T01270088  RH  077%=      5-min Rain = 0
KOD1 161753Z 19011KT 13/09 A3008 RMK A01 T01270086  RH  076%=      5-min Rain = 0
KOD1 161754Z 18011KT 13/08 A3008 RMK A01 T01280084  RH  074%=      5-min Rain = 0
KOD1 161755Z 17009KT 13/08 A3008 RMK A01 T01280084  RH  075%=      5-min Rain = 0
KOD1 161756Z 19008KT 13/09 A3008 RMK A01 T01290087  RH  076%=      5-min Rain = 0
KOD1 161757Z 17011KT 13/09 A3008 RMK A01 T01310088  RH  075%=      5-min Rain = 0
KOD1 161758Z 17010KT 13/09 A3008 RMK A01 T01310088  RH  075%=      5-min Rain = 0
KOD1 161759Z 17008KT 13/09 A3008 RMK A01 T01320090  RH  076%=      5-min Rain = 0
KOD1 161800Z 17009KT 13/09 A3007 RMK A01 T01330090  RH  075%=      5-min Rain = 0
KOD1 161801Z 18010KT 13/09 A3007 RMK A01 T01340091  RH  075%=      5-min Rain = 0
KOD1 161802Z 18010KT 14/09 A3007 RMK A01 T01350091  RH  075%=      5-min Rain = 0
KOD1 161803Z 19011KT 14/09 A3007 RMK A01 T01350089  RH  074%=      5-min Rain = 0
KOD1 161804Z 19011KT 14/09 A3007 RMK A01 T01360090  RH  074%=      5-min Rain = 0
KOD1 161805Z 18012KT 14/09 A3007 RMK A01 T01360088  RH  073%=      5-min Rain = 0
KOD1 161806Z 18009KT 14/09 A3007 RMK A01 T01360088  RH  073%=      5-min Rain = 0
KOD1 161807Z 17011KT 14/09 A3007 RMK A01 T01360090  RH  073%=      5-min Rain = 0
KOD1 161808Z 19011KT 14/09 A3007 RMK A01 T01370089  RH  073%=      5-min Rain = 0
KOD1 161809Z 19008KT 14/09 A3007 RMK A01 T01370090  RH  073%=      5-min Rain = 0
KOD1 161810Z 18011KT 14/09 A3007 RMK A01 T01370089  RH  073%=      5-min Rain = 0
KOD1 161811Z 17010KT 14/09 A3007 RMK A01 T01370089  RH  073%=      5-min Rain = 0
KOD1 161812Z 18009KT 14/09 A3007 RMK A01 T01370091  RH  074%=      5-min Rain = 0
KOD1 161813Z 18010KT 14/09 A3006 RMK A01 T01390089  RH  072%=      5-min Rain = 0
KOD1 161814Z 18009KT 14/09 A3006 RMK A01 T01400092  RH  072%=      5-min Rain = 0
KOD1 161815Z 17012KT 14/09 A3006 RMK A01 T01420090  RH  071%=      5-min Rain = 0
KOD1 161816Z 17011KT 14/09 A3006 RMK A01 T01410087  RH  070%=      5-min Rain = 0
KOD1 161817Z 18013KT 14/09 A3006 RMK A01 T01420087  RH  070%=      5-min Rain = 0
KOD1 161818Z 19012KT 14/09 A3006 RMK A01 T01420086  RH  069%=      5-min Rain = 0
KOD1 161819Z 18010KT 14/08 A3005 RMK A01 T01420083  RH  068%=      5-min Rain = 0
KOD1 161820Z 18009KT 14/08 A3005 RMK A01 T01410083  RH  068%=      5-min Rain = 0
KOD1 161821Z 19011KT 14/09 A3005 RMK A01 T01430089  RH  070%=      5-min Rain = 0
KOD1 161822Z 20009KT 14/08 A3005 RMK A01 T01440083  RH  067%=      5-min Rain = 0
KOD1 161823Z 19010KT 14/09 A3005 RMK A01 T01440086  RH  068%=      5-min Rain = 0
KOD1 161824Z 20009KT 15/09 A3005 RMK A01 T01460088  RH  068%=      5-min Rain = 0
KOD1 161825Z 19012KT 15/09 A3005 RMK A01 T01470087  RH  067%=      5-min Rain = 0
KOD1 161826Z 19010KT 15/08 A3005 RMK A01 T01480084  RH  065%=      5-min Rain = 0
KOD1 161827Z 18008KT 15/09 A3005 RMK A01 T01490085  RH  066%=      5-min Rain = 0
KOD1 161828Z 17009KT 15/09 A3005 RMK A01 T01510092  RH  068%=      5-min Rain = 0
KOD1 161829Z 19010KT 15/09 A3005 RMK A01 T01520090  RH  067%=      5-min Rain = 0
KOD1 161830Z 19010KT 15/08 A3005 RMK A01 T01510084  RH  064%=      5-min Rain = 0
KOD1 161831Z 19009KT 15/09 A3005 RMK A01 T01500085  RH  065%=      5-min Rain = 0
KOD1 161832Z 18007KT 15/09 A3005 RMK A01 T01500087  RH  066%=      5-min Rain = 0
KOD1 161833Z 19009KT 15/09 A3005 RMK A01 T01510087  RH  065%=      5-min Rain = 0
KOD1 161834Z 19009KT 15/09 A3005 RMK A01 T01520086  RH  064%=      5-min Rain = 0
KOD1 161835Z 18008KT 15/08 A3005 RMK A01 T01520084  RH  064%=      5-min Rain = 0
KOD1 161836Z 19008KT 15/08 A3005 RMK A01 T01520084  RH  064%=      5-min Rain = 0
KOD1 161837Z 19009KT 15/09 A3004 RMK A01 T01520088  RH  065%=      5-min Rain = 0
KOD1 161838Z 19010KT 15/09 A3004 RMK A01 T01530088  RH  065%=      5-min Rain = 0
KOD1 161839Z 20010KT 15/08 A3004 RMK A01 T01530084  RH  063%=      5-min Rain = 0
KOD1 161840Z 18008KT 15/08 A3004 RMK A01 T01520084  RH  064%=      5-min Rain = 0
KOD1 161841Z 18009KT 15/09 A3004 RMK A01 T01510086  RH  065%=      5-min Rain = 0
KOD1 161842Z 17008KT 15/09 A3004 RMK A01 T01520089  RH  066%=      5-min Rain = 0
KOD1 161843Z 17009KT 15/09 A3004 RMK A01 T01520085  RH  065%=      5-min Rain = 0
KOD1 161844Z 17011KT 15/09 A3004 RMK A01 T01530088  RH  065%=      5-min Rain = 0
KOD1 161845Z 19009KT 15/09 A3004 RMK A01 T01540090  RH  066%=      5-min Rain = 0
KOD1 161846Z 21009KT 16/09 A3004 RMK A01 T01560089  RH  064%=      5-min Rain = 0
KOD1 161847Z 20007KT 16/09 A3004 RMK A01 T01570090  RH  065%=      5-min Rain = 0
KOD1 161848Z 19008KT 16/09 A3003 RMK A01 T01570089  RH  064%=      5-min Rain = 0
KOD1 161849Z 19009KT 16/09 A3003 RMK A01 T01570088  RH  064%=      5-min Rain = 0
KOD1 161850Z 19010KT 16/09 A3003 RMK A01 T01560087  RH  064%=      5-min Rain = 0
KOD1 161851Z 18009KT 15/09 A3003 RMK A01 T01540087  RH  064%=      5-min Rain = 0
KOD1 161852Z 18009KT 15/09 A3003 RMK A01 T01530090  RH  066%=      5-min Rain = 0
KOD1 161853Z 17008KT 15/09 A3003 RMK A01 T01530090  RH  066%=      5-min Rain = 0
KOD1 161854Z 19008KT 16/09 A3003 RMK A01 T01550092  RH  066%=      5-min Rain = 0
KOD1 161855Z 19010KT 16/09 A3003 RMK A01 T01560088  RH  064%=      5-min Rain = 0
KOD1 161856Z 20009KT 16/09 A3003 RMK A01 T01560089  RH  065%=      5-min Rain = 0
KOD1 161857Z 20009KT 16/09 A3003 RMK A01 T01550087  RH  064%=      5-min Rain = 0
KOD1 161858Z 19011KT 16/09 A3003 RMK A01 T01550088  RH  065%=      5-min Rain = 0
KOD1 161859Z 18008KT 15/09 A3003 RMK A01 T01540089  RH  065%=      5-min Rain = 0
KOD1 161900Z 18010KT 15/09 A3003 RMK A01 T01540090  RH  066%=      5-min Rain = 0
KOD1 161901Z 19010KT 15/09 A3002 RMK A01 T01540090  RH  066%=      5-min Rain = 0
KOD1 161902Z 18011KT 15/09 A3002 RMK A01 T01540090  RH  065%=      5-min Rain = 0
KOD1 161903Z 18009KT 15/09 A3002 RMK A01 T01540090  RH  065%=      5-min Rain = 0
KOD1 161904Z 19009KT 16/09 A3002 RMK A01 T01560089  RH  064%=      5-min Rain = 0
KOD1 161905Z 18010KT 16/09 A3002 RMK A01 T01560090  RH  065%=      5-min Rain = 0
KOD1 161906Z 18012KT 16/09 A3002 RMK A01 T01560090  RH  065%=      5-min Rain = 0
KOD1 161907Z 18012KT 16/09 A3002 RMK A01 T01550089  RH  065%=      5-min Rain = 0
KOD1 161908Z 18011KT 16/09 A3002 RMK A01 T01550089  RH  065%=      5-min Rain = 0
KOD1 161909Z 18012KT 16/09 A3001 RMK A01 T01560090  RH  065%=      5-min Rain = 0
KOD1 161910Z 18010KT 16/09 A3001 RMK A01 T01560090  RH  065%=      5-min Rain = 0
KOD1 161911Z 18009KT 16/09 A3001 RMK A01 T01570092  RH  065%=      5-min Rain = 0
KOD1 161912Z 18012KT 16/09 A3001 RMK A01 T01580092  RH  065%=      5-min Rain = 0
KOD1 161913Z 18012KT 16/09 A3001 RMK A01 T01590092  RH  065%=      5-min Rain = 0
KOD1 161914Z 18011KT 16/09 A3001 RMK A01 T01590093  RH  065%=      5-min Rain = 0
KOD1 161915Z 18012KT 16/09 A3001 RMK A01 T01610093  RH  064%=      5-min Rain = 0
KOD1 161916Z 18014KT 16/09 A3001 RMK A01 T01610093  RH  064%=      5-min Rain = 0
KOD1 161917Z 18013KT 16/09 A3001 RMK A01 T01600092  RH  064%=      5-min Rain = 0
KOD1 161918Z 18011KT 16/09 A3001 RMK A01 T01600092  RH  064%=      5-min Rain = 0
KOD1 161919Z 18010KT 16/09 A3001 RMK A01 T01600092  RH  064%=      5-min Rain = 0
KOD1 161920Z 17009KT 16/10 A3001 RMK A01 T01610096  RH  065%=      5-min Rain = 0
KOD1 161921Z 17011KT 16/09 A3001 RMK A01 T01610093  RH  064%=      5-min Rain = 0
KOD1 161922Z 16013KT 16/09 A30 RMK A01 T01600093  RH  064%=      5-min Rain = 0
KOD1 161923Z 17014KT 16/09 A30 RMK A01 T01600093  RH  064%=      5-min Rain = 0
KOD1 161924Z 18013KT 16/09 A30 RMK A01 T01590092  RH  064%=      5-min Rain = 0
KOD1 161925Z 18010KT 16/10 A30 RMK A01 T01590095  RH  066%=      5-min Rain = 0
KOD1 161926Z 17011KT 16/09 A30 RMK A01 T01600093  RH  065%=      5-min Rain = 0
KOD1 161927Z 17012KT 16/10 A30 RMK A01 T01600095  RH  065%=      5-min Rain = 0
KOD1 161928Z 17012KT 16/10 A30 RMK A01 T01610095  RH  065%=      5-min Rain = 0
KOD1 161929Z 17012KT 16/10 A30 RMK A01 T01620095  RH  064%=      5-min Rain = 0
KOD1 161930Z 18012KT 16/09 A30 RMK A01 T01630093  RH  064%=      5-min Rain = 0
KOD1 161931Z 17009KT 16/10 A30 RMK A01 T01620095  RH  064%=      5-min Rain = 0
KOD1 161932Z 17010KT 16/10 A30 RMK A01 T01630095  RH  064%=      5-min Rain = 0
KOD1 161933Z 18010KT 16/09 A30 RMK A01 T01620092  RH  063%=      5-min Rain = 0
KOD1 161934Z 18011KT 16/09 A30 RMK A01 T01620093  RH  063%=      5-min Rain = 0
KOD1 161935Z 19012KT 16/09 A30 RMK A01 T01630093  RH  063%=      5-min Rain = 0
KOD1 161936Z 18008KT 17/10 A30 RMK A01 T01650095  RH  063%=      5-min Rain = 0
KOD1 161937Z 18011KT 17/10 A30 RMK A01 T01660095  RH  063%=      5-min Rain = 0
KOD1 161938Z 18011KT 17/09 A2999 RMK A01 T01660093  RH  062%=      5-min Rain = 0
KOD1 161939Z 19012KT 17/09 A2999 RMK A01 T01660091  RH  061%=      5-min Rain = 0
KOD1 161940Z 18011KT 17/09 A2999 RMK A01 T01660092  RH  062%=      5-min Rain = 0
KOD1 161941Z 18011KT 17/09 A2999 RMK A01 T01670091  RH  061%=      5-min Rain = 0
KOD1 161942Z 18011KT 17/09 A2999 RMK A01 T01670093  RH  061%=      5-min Rain = 0
KOD1 161943Z 19010KT 17/09 A2999 RMK A01 T01670091  RH  061%=      5-min Rain = 0
KOD1 161944Z 17010KT 17/09 A2999 RMK A01 T01670094  RH  062%=      5-min Rain = 0
KOD1 161945Z 17010KT 17/10 A2999 RMK A01 T01680096  RH  063%=      5-min Rain = 0
KOD1 161946Z 17012KT 17/10 A2999 RMK A01 T01690097  RH  062%=      5-min Rain = 0
KOD1 161947Z 17010KT 17/10 A2999 RMK A01 T01690096  RH  062%=      5-min Rain = 0
KOD1 161948Z 17013KT 17/10 A2999 RMK A01 T01690096  RH  062%=      5-min Rain = 0
KOD1 161949Z 18012KT 17/10 A2999 RMK A01 T01690098  RH  063%=      5-min Rain = 0
KOD1 161950Z 18012KT 17/10 A2999 RMK A01 T01690095  RH  061%=      5-min Rain = 0
KOD1 161951Z 18013KT 17/10 A2999 RMK A01 T01690096  RH  062%=      5-min Rain = 0
KOD1 161952Z 17014KT 17/09 A2999 RMK A01 T01690094  RH  061%=      5-min Rain = 0
KOD1 161953Z 17015KT 17/09 A2999 RMK A01 T01680094  RH  062%=      5-min Rain = 0
KOD1 161954Z 18012KT 17/10 A2999 RMK A01 T01680097  RH  063%=      5-min Rain = 0
KOD1 161955Z 17013KT 17/10 A2999 RMK A01 T01690097  RH  062%=      5-min Rain = 0
KOD1 161956Z 18011KT 17/10 A2999 RMK A01 T01690096  RH  062%=      5-min Rain = 0
KOD1 161957Z 18011KT 17/10 A2999 RMK A01 T01700095  RH  061%=      5-min Rain = 0
KOD1 161958Z 19012KT 17/10 A2998 RMK A01 T01690095  RH  062%=      5-min Rain = 0
KOD1 161959Z 18010KT 17/10 A2998 RMK A01 T01690095  RH  061%=      5-min Rain = 0
KOD1 162000Z 17012KT 17/10 A2998 RMK A01 T01700097  RH  062%=      5-min Rain = 0
KOD1 162001Z 18010KT 17/09 A2998 RMK A01 T01690092  RH  060%=      5-min Rain = 0
KOD1 162002Z 17013KT 17/10 A2998 RMK A01 T01680095  RH  062%=      5-min Rain = 0
KOD1 162003Z 17013KT 17/10 A2998 RMK A01 T01680095  RH  062%=      5-min Rain = 0
KOD1 162004Z 17014KT 17/09 A2998 RMK A01 T01690094  RH  061%=      5-min Rain = 0
KOD1 162005Z 18012KT 17/09 A2998 RMK A01 T01690094  RH  061%=      5-min Rain = 0
KOD1 162006Z 17013KT 17/09 A2997 RMK A01 T01700094  RH  061%=      5-min Rain = 0
KOD1 162007Z 17013KT 17/09 A2997 RMK A01 T01690094  RH  061%=      5-min Rain = 0
KOD1 162008Z 17013KT 17/09 A2997 RMK A01 T01680093  RH  061%=      5-min Rain = 0
KOD1 162009Z 18015KT 17/09 A2997 RMK A01 T01680093  RH  061%=      5-min Rain = 0
KOD1 162010Z 18013KT 17/09 A2997 RMK A01 T01680093  RH  061%=      5-min Rain = 0
KOD1 162011Z 17013KT 17/09 A2997 RMK A01 T01680094  RH  061%=      5-min Rain = 0
KOD1 162012Z 18013KT 17/09 A2997 RMK A01 T01700094  RH  061%=      5-min Rain = 0
KOD1 162013Z 18012KT 17/10 A2997 RMK A01 T01710095  RH  061%=      5-min Rain = 0
KOD1 162014Z 16012KT 17/09 A2997 RMK A01 T01720094  RH  060%=      5-min Rain = 0
KOD1 162015Z 17012KT 17/10 A2997 RMK A01 T01740095  RH  060%=      5-min Rain = 0
KOD1 162016Z 18013KT 17/09 A2997 RMK A01 T01740094  RH  059%=      5-min Rain = 0
KOD1 162017Z 18013KT 17/09 A2997 RMK A01 T01740093  RH  059%=      5-min Rain = 0
KOD1 162018Z 19012KT 17/09 A2997 RMK A01 T01730094  RH  060%=      5-min Rain = 0
KOD1 162019Z 18011KT 17/09 A2997 RMK A01 T01730093  RH  059%=      5-min Rain = 0
KOD1 162020Z 18010KT 17/10 A2997 RMK A01 T01730096  RH  060%=      5-min Rain = 0
KOD1 162021Z 17010KT 18/10 A2997 RMK A01 T01750097  RH  060%=      5-min Rain = 0
KOD1 162022Z 17010KT 18/10 A2997 RMK A01 T01760097  RH  060%=      5-min Rain = 0
KOD1 162023Z 18015KT 18/10 A2997 RMK A01 T01780096  RH  059%=      5-min Rain = 0
KOD1 162024Z 18014KT 18/10 A2997 RMK A01 T01780095  RH  058%=      5-min Rain = 0
KOD1 162025Z 18013KT 18/10 A2997 RMK A01 T01780096  RH  058%=      5-min Rain = 0
KOD1 162026Z 17011KT 18/10 A2997 RMK A01 T01790096  RH  058%=      5-min Rain = 0
KOD1 162027Z 18011KT 18/10 A2997 RMK A01 T01800095  RH  058%=      5-min Rain = 0
KOD1 162028Z 18012KT 18/10 A2997 RMK A01 T01800097  RH  058%=      5-min Rain = 0
KOD1 162029Z 17013KT 18/10 A2997 RMK A01 T01810097  RH  058%=      5-min Rain = 0
KOD1 162030Z 18013KT 18/10 A2997 RMK A01 T01800095  RH  057%=      5-min Rain = 0
KOD1 162031Z 17012KT 18/10 A2997 RMK A01 T01800096  RH  058%=      5-min Rain = 0
KOD1 162032Z 18013KT 18/10 A2996 RMK A01 T01800098  RH  058%=      5-min Rain = 0
KOD1 162033Z 18012KT 18/10 A2996 RMK A01 T01810097  RH  058%=      5-min Rain = 0
KOD1 162034Z 17012KT 18/10 A2996 RMK A01 T01810098  RH  058%=      5-min Rain = 0
KOD1 162035Z 17014KT 18/10 A2996 RMK A01 T01810097  RH  058%=      5-min Rain = 0
KOD1 162036Z 17013KT 18/10 A2996 RMK A01 T01800096  RH  058%=      5-min Rain = 0
KOD1 162037Z 18013KT 18/09 A2996 RMK A01 T01800094  RH  057%=      5-min Rain = 0
KOD1 162038Z 17014KT 18/10 A2996 RMK A01 T01800095  RH  058%=      5-min Rain = 0
KOD1 162039Z 18015KT 18/10 A2996 RMK A01 T01790095  RH  058%=      5-min Rain = 0
KOD1 162040Z 18016KT 18/10 A2996 RMK A01 T01790095  RH  058%=      5-min Rain = 0
KOD1 162041Z 17014KT 18/09 A2996 RMK A01 T01790093  RH  057%=      5-min Rain = 0
KOD1 162042Z 17013KT 18/09 A2996 RMK A01 T01790093  RH  057%=      5-min Rain = 0
KOD1 162043Z 17013KT 18/09 A2996 RMK A01 T01780092  RH  057%=      5-min Rain = 0
KOD1 162044Z 17013KT 18/09 A2996 RMK A01 T01770094  RH  058%=      5-min Rain = 0
KOD1 162045Z 17012KT 18/09 A2996 RMK A01 T01780094  RH  058%=      5-min Rain = 0
KOD1 162046Z 17012KT 18/10 A2996 RMK A01 T01790096  RH  058%=      5-min Rain = 0
KOD1 162047Z 17013KT 18/10 A2996 RMK A01 T01800096  RH  058%=      5-min Rain = 0
KOD1 162048Z 17013KT 18/10 A2996 RMK A01 T01810096  RH  058%=      5-min Rain = 0
KOD1 162049Z 18012KT 18/10 A2996 RMK A01 T01810095  RH  057%=      5-min Rain = 0
KOD1 162050Z 17011KT 18/10 A2996 RMK A01 T01830097  RH  057%=      5-min Rain = 0
KOD1 162051Z 17012KT 18/10 A2996 RMK A01 T01830097  RH  057%=      5-min Rain = 0
KOD1 162052Z 17014KT 18/10 A2996 RMK A01 T01840100  RH  058%=      5-min Rain = 0
KOD1 162053Z 16014KT 18/10 A2996 RMK A01 T01830100  RH  059%=      5-min Rain = 0
KOD1 162054Z 16011KT 18/10 A2996 RMK A01 T01820100  RH  059%=      5-min Rain = 0
KOD1 162055Z 15013KT 18/10 A2995 RMK A01 T01820101  RH  059%=      5-min Rain = 0
KOD1 162056Z 15013KT 18/10 A2995 RMK A01 T01810101  RH  059%=      5-min Rain = 0
KOD1 162057Z 16012KT 18/10 A2996 RMK A01 T01800103  RH  061%=      5-min Rain = 0
KOD1 162058Z 16014KT 18/10 A2996 RMK A01 T01790103  RH  061%=      5-min Rain = 0
KOD1 162059Z 16013KT 18/10 A2996 RMK A01 T01770101  RH  061%=      5-min Rain = 0
KOD1 162100Z 17010KT 18/10 A2996 RMK A01 T01750102  RH  062%=      5-min Rain = 0
KOD1 162101Z 16011KT 18/10 A2996 RMK A01 T01750103  RH  063%=      5-min Rain = 0
KOD1 162102Z 16012KT 18/10 A2996 RMK A01 T01750103  RH  062%=      5-min Rain = 0
KOD1 162103Z 16012KT 18/10 A2995 RMK A01 T01760103  RH  062%=      5-min Rain = 0
KOD1 162104Z 16012KT 18/10 A2995 RMK A01 T01760103  RH  062%=      5-min Rain = 0
KOD1 162105Z 16011KT 18/10 A2995 RMK A01 T01770104  RH  062%=      5-min Rain = 0
KOD1 162106Z 16013KT 18/11 A2995 RMK A01 T01780105  RH  062%=      5-min Rain = 0
KOD1 162107Z 16014KT 18/10 A2995 RMK A01 T01780102  RH  061%=      5-min Rain = 0
KOD1 162108Z 16012KT 18/10 A2995 RMK A01 T01780104  RH  062%=      5-min Rain = 0
KOD1 162109Z 16013KT 18/10 A2995 RMK A01 T01790104  RH  062%=      5-min Rain = 0
KOD1 162110Z 17012KT 18/11 A2995 RMK A01 T01790106  RH  062%=      5-min Rain = 0
KOD1 162111Z 17012KT 18/11 A2995 RMK A01 T01790106  RH  062%=      5-min Rain = 0
KOD1 162112Z 16013KT 18/11 A2995 RMK A01 T01800105  RH  061%=      5-min Rain = 0
KOD1 162113Z 16014KT 18/10 A2995 RMK A01 T01790104  RH  061%=      5-min Rain = 0
KOD1 162114Z 17014KT 18/10 A2995 RMK A01 T01780101  RH  060%=      5-min Rain = 0
KOD1 162115Z 16013KT 18/10 A2995 RMK A01 T01780103  RH  062%=      5-min Rain = 0
KOD1 162116Z 17015KT 18/10 A2995 RMK A01 T01770104  RH  062%=      5-min Rain = 0
KOD1 162117Z 16013KT 18/11 A2995 RMK A01 T01770105  RH  063%=      5-min Rain = 0
KOD1 162118Z 16014KT 18/11 A2995 RMK A01 T01780105  RH  062%=      5-min Rain = 0
KOD1 162119Z 16012KT 18/11 A2995 RMK A01 T01780106  RH  063%=      5-min Rain = 0
KOD1 162120Z 15014KT 18/11 A2995 RMK A01 T01780105  RH  062%=      5-min Rain = 0
KOD1 162121Z 17013KT 18/11 A2995 RMK A01 T01780105  RH  062%=      5-min Rain = 0
KOD1 162122Z 16013KT 18/11 A2995 RMK A01 T01780107  RH  063%=      5-min Rain = 0
KOD1 162123Z 16014KT 18/11 A2995 RMK A01 T01780106  RH  063%=      5-min Rain = 0
KOD1 162124Z 16014KT 18/11 A2995 RMK A01 T01790107  RH  063%=      5-min Rain = 0
KOD1 162125Z 16016KT 18/11 A2995 RMK A01 T01800107  RH  062%=      5-min Rain = 0
KOD1 162126Z 17017KT 18/11 A2995 RMK A01 T01800105  RH  062%=      5-min Rain = 0
KOD1 162127Z 17015KT 18/11 A2995 RMK A01 T01800106  RH  062%=      5-min Rain = 0
KOD1 162128Z 16014KT 18/11 A2995 RMK A01 T01800106  RH  062%=      5-min Rain = 0
KOD1 162129Z 16014KT 18/11 A2995 RMK A01 T01800106  RH  062%=      5-min Rain = 0
KOD1 162130Z 16016KT 18/11 A2995 RMK A01 T01790105  RH  062%=      5-min Rain = 0
KOD1 162131Z 16016KT 18/11 A2995 RMK A01 T01780106  RH  063%=      5-min Rain = 0
KOD1 162132Z 17017KT 18/11 A2995 RMK A01 T01770106  RH  063%=      5-min Rain = 0
KOD1 162133Z 17016KT 18/11 A2995 RMK A01 T01760106  RH  063%=      5-min Rain = 0
KOD1 162134Z 16014KT 18/11 A2995 RMK A01 T01770108  RH  064%=      5-min Rain = 0
KOD1 162135Z 16017KT 18/11 A2995 RMK A01 T01770107  RH  063%=      5-min Rain = 0
KOD1 162136Z 16016KT 18/11 A2995 RMK A01 T01770107  RH  064%=      5-min Rain = 0
KOD1 162137Z 16015KT 18/11 A2995 RMK A01 T01770107  RH  064%=      5-min Rain = 0
KOD1 162138Z 17014KT 18/11 A2995 RMK A01 T01750107  RH  064%=      5-min Rain = 0
KOD1 162139Z 16015KT 17/11 A2995 RMK A01 T01740107  RH  065%=      5-min Rain = 0
KOD1 162140Z 17017KT 17/11 A2995 RMK A01 T01740106  RH  064%=      5-min Rain = 0
KOD1 162141Z 17015KT 17/11 A2995 RMK A01 T01730107  RH  065%=      5-min Rain = 0
KOD1 162142Z 17014KT 17/11 A2995 RMK A01 T01730107  RH  065%=      5-min Rain = 0
KOD1 162143Z 17014KT 17/11 A2995 RMK A01 T01730107  RH  065%=      5-min Rain = 0
KOD1 162144Z 16014KT 17/11 A2995 RMK A01 T01730107  RH  065%=      5-min Rain = 0
KOD1 162145Z 16015KT 17/11 A2995 RMK A01 T01720106  RH  065%=      5-min Rain = 0
KOD1 162146Z 16015KT 17/11 A2995 RMK A01 T01720107  RH  065%=      5-min Rain = 0
KOD1 162147Z 16014KT 17/11 A2995 RMK A01 T01720107  RH  066%=      5-min Rain = 0
KOD1 162148Z 16013KT 17/11 A2995 RMK A01 T01730108  RH  066%=      5-min Rain = 0
KOD1 162149Z 16011KT 17/11 A2995 RMK A01 T01740109  RH  066%=      5-min Rain = 0
KOD1 162150Z 16013G18KT 17/11 A2995 RMK A01 T01740108  RH  065%=      5-min Rain = 0
KOD1 162151Z 16015KT 17/11 A2995 RMK A01 T01730106  RH  065%=      5-min Rain = 0
KOD1 162152Z 16014KT 17/11 A2995 RMK A01 T01720106  RH  065%=      5-min Rain = 0
KOD1 162153Z 16013KT 17/11 A2995 RMK A01 T01710107  RH  066%=      5-min Rain = 0
KOD1 162154Z 16015KT 17/11 A2995 RMK A01 T01700106  RH  066%=      5-min Rain = 0
KOD1 162155Z 16015KT 17/11 A2995 RMK A01 T01680105  RH  066%=      5-min Rain = 0
KOD1 162156Z 16016KT 17/11 A2995 RMK A01 T01670105  RH  067%=      5-min Rain = 0
KOD1 162157Z 16014KT 17/11 A2995 RMK A01 T01660105  RH  067%=      5-min Rain = 0
KOD1 162158Z 16015KT 17/11 A2995 RMK A01 T01650105  RH  068%=      5-min Rain = 0
KOD1 162159Z 16014KT 16/11 A2994 RMK A01 T01640105  RH  068%=      5-min Rain = 0
KOD1 162200Z 16013KT 16/11 A2994 RMK A01 T01640105  RH  068%=      5-min Rain = 0
KOD1 162201Z 16015KT 16/11 A2994 RMK A01 T01630105  RH  069%=      5-min Rain = 0
KOD1 162202Z 16014KT 16/11 A2994 RMK A01 T01630105  RH  069%=      5-min Rain = 0
KOD1 162203Z 16014KT 16/11 A2994 RMK A01 T01620106  RH  069%=      5-min Rain = 0
KOD1 162204Z 16013KT 16/11 A2994 RMK A01 T01620106  RH  069%=      5-min Rain = 0
KOD1 162205Z 16013KT 16/11 A2994 RMK A01 T01620106  RH  069%=      5-min Rain = 0
KOD1 162206Z 16014KT 16/11 A2994 RMK A01 T01620106  RH  070%=      5-min Rain = 0
KOD1 162207Z 16014KT 16/11 A2994 RMK A01 T01610106  RH  070%=      5-min Rain = 0
KOD1 162208Z 16013KT 16/11 A2994 RMK A01 T01610107  RH  070%=      5-min Rain = 0
KOD1 162209Z 16014KT 16/11 A2994 RMK A01 T01610106  RH  070%=      5-min Rain = 0
KOD1 162210Z 16012KT 16/11 A2994 RMK A01 T01610107  RH  070%=      5-min Rain = 0
KOD1 162211Z 16011KT 16/11 A2994 RMK A01 T01610106  RH  070%=      5-min Rain = 0
KOD1 162212Z 16012KT 16/11 A2994 RMK A01 T01610107  RH  070%=      5-min Rain = 0
KOD1 162213Z 16013KT 16/11 A2994 RMK A01 T01610107  RH  070%=      5-min Rain = 0
KOD1 162214Z 16012KT 16/11 A2994 RMK A01 T01620107  RH  070%=      5-min Rain = 0
KOD1 162215Z 16012KT 16/11 A2994 RMK A01 T01620107  RH  070%=      5-min Rain = 0
KOD1 162216Z 16012KT 16/11 A2994 RMK A01 T01620107  RH  070%=      5-min Rain = 0
KOD1 162217Z 16014KT 16/11 A2994 RMK A01 T01620108  RH  070%=      5-min Rain = 0
KOD1 162218Z 16013KT 16/11 A2994 RMK A01 T01630108  RH  070%=      5-min Rain = 0
KOD1 162219Z 16015KT 16/11 A2994 RMK A01 T01640108  RH  069%=      5-min Rain = 0
KOD1 162220Z 16014KT 17/11 A2994 RMK A01 T01650108  RH  069%=      5-min Rain = 0
KOD1 162221Z 16014KT 17/11 A2994 RMK A01 T01650108  RH  069%=      5-min Rain = 0
KOD1 162222Z 16014KT 17/11 A2994 RMK A01 T01660107  RH  068%=      5-min Rain = 0
KOD1 162223Z 16013KT 17/11 A2994 RMK A01 T01660108  RH  068%=      5-min Rain = 0
KOD1 162224Z 16012KT 17/11 A2994 RMK A01 T01660108  RH  068%=      5-min Rain = 0
KOD1 162225Z 16012KT 17/11 A2994 RMK A01 T01660108  RH  069%=      5-min Rain = 0
KOD1 162226Z 16013KT 17/11 A2994 RMK A01 T01660108  RH  068%=      5-min Rain = 0
KOD1 162227Z 16012KT 17/11 A2994 RMK A01 T01670108  RH  068%=      5-min Rain = 0
KOD1 162228Z 16014KT 17/11 A2994 RMK A01 T01670108  RH  068%=      5-min Rain = 0
KOD1 162229Z 16015KT 17/11 A2993 RMK A01 T01670108  RH  068%=      5-min Rain = 0
KOD1 162230Z 16014KT 17/11 A2993 RMK A01 T01680108  RH  068%=      5-min Rain = 0
KOD1 162231Z 16014KT 17/11 A2993 RMK A01 T01690107  RH  067%=      5-min Rain = 0
KOD1 162232Z 16015KT 17/11 A2993 RMK A01 T01690107  RH  067%=      5-min Rain = 0
KOD1 162233Z 16013KT 17/11 A2993 RMK A01 T01690108  RH  067%=      5-min Rain = 0
KOD1 162234Z 16014KT 17/11 A2993 RMK A01 T01690108  RH  067%=      5-min Rain = 0
KOD1 162235Z 16013KT 17/11 A2993 RMK A01 T01700108  RH  067%=      5-min Rain = 0
KOD1 162236Z 16014KT 17/11 A2993 RMK A01 T01700108  RH  067%=      5-min Rain = 0
KOD1 162237Z 16014KT 17/11 A2993 RMK A01 T01690108  RH  067%=      5-min Rain = 0
KOD1 162238Z 16014KT 17/11 A2993 RMK A01 T01700108  RH  067%=      5-min Rain = 0
KOD1 162239Z 16014KT 17/11 A2993 RMK A01 T01700108  RH  067%=      5-min Rain = 0
KOD1 162240Z 16013KT 17/11 A2993 RMK A01 T01700108  RH  067%=      5-min Rain = 0
KOD1 162241Z 16012KT 17/11 A2993 RMK A01 T01690108  RH  067%=      5-min Rain = 0
KOD1 162242Z 16012KT 17/11 A2993 RMK A01 T01690109  RH  067%=      5-min Rain = 0
KOD1 162243Z 16013KT 17/11 A2993 RMK A01 T01690109  RH  068%=      5-min Rain = 0
KOD1 162244Z 17015KT 17/11 A2993 RMK A01 T01700109  RH  067%=      5-min Rain = 0
KOD1 162245Z 16013KT 17/11 A2993 RMK A01 T01710109  RH  067%=      5-min Rain = 0
KOD1 162246Z 16014KT 17/11 A2993 RMK A01 T01720109  RH  066%=      5-min Rain = 0
KOD1 162247Z 16015KT 17/11 A2993 RMK A01 T01730109  RH  066%=      5-min Rain = 0
KOD1 162248Z 16015KT 17/11 A2993 RMK A01 T01740109  RH  066%=      5-min Rain = 0
KOD1 162249Z 16014KT 17/11 A2993 RMK A01 T01740109  RH  066%=      5-min Rain = 0
KOD1 162250Z 16013KT 18/11 A2993 RMK A01 T01750110  RH  065%=      5-min Rain = 0
KOD1 162251Z 16013KT 18/11 A2993 RMK A01 T01750110  RH  066%=      5-min Rain = 0
KOD1 162252Z 16013KT 18/11 A2993 RMK A01 T01760111  RH  066%=      5-min Rain = 0
KOD1 162253Z 16014KT 18/11 A2993 RMK A01 T01760111  RH  065%=      5-min Rain = 0
KOD1 162254Z 16015KT 18/11 A2993 RMK A01 T01770110  RH  065%=      5-min Rain = 0
KOD1 162255Z 16015KT 18/11 A2992 RMK A01 T01770110  RH  065%=      5-min Rain = 0
KOD1 162256Z 16015KT 18/11 A2992 RMK A01 T01770111  RH  065%=      5-min Rain = 0
KOD1 162257Z 16016KT 18/11 A2992 RMK A01 T01770110  RH  065%=      5-min Rain = 0
KOD1 162258Z 17013KT 18/11 A2992 RMK A01 T01780111  RH  065%=      5-min Rain = 0
KOD1 162259Z 17014KT 18/11 A2992 RMK A01 T01780111  RH  065%=      5-min Rain = 0
KOD1 162300Z 17015KT 18/11 A2992 RMK A01 T01780110  RH  065%=      5-min Rain = 0
KOD1 162301Z 17015KT 18/11 A2992 RMK A01 T01780110  RH  065%=      5-min Rain = 0
KOD1 162302Z 17015KT 18/11 A2992 RMK A01 T01780110  RH  065%=      5-min Rain = 0
KOD1 162303Z 16015KT 18/11 A2992 RMK A01 T01780110  RH  065%=      5-min Rain = 0
KOD1 162304Z 17014KT 18/11 A2992 RMK A01 T01780110  RH  065%=      5-min Rain = 0
KOD1 162305Z 17014KT 18/11 A2992 RMK A01 T01770110  RH  065%=      5-min Rain = 0
KOD1 162306Z 17014KT 18/11 A2992 RMK A01 T01780110  RH  064%=      5-min Rain = 0
KOD1 162307Z 17013KT 18/11 A2992 RMK A01 T01780110  RH  064%=      5-min Rain = 0
KOD1 162308Z 16015KT 18/11 A2992 RMK A01 T01780110  RH  064%=      5-min Rain = 0
KOD1 162309Z 16014KT 18/11 A2992 RMK A01 T01780110  RH  064%=      5-min Rain = 0
KOD1 162310Z 16014KT 18/11 A2992 RMK A01 T01770110  RH  065%=      5-min Rain = 0
KOD1 162311Z 16015KT 18/11 A2992 RMK A01 T01760110  RH  065%=      5-min Rain = 0
KOD1 162312Z 16014KT 18/11 A2992 RMK A01 T01750110  RH  065%=      5-min Rain = 0
KOD1 162313Z 16016KT 18/11 A2992 RMK A01 T01750110  RH  066%=      5-min Rain = 0
KOD1 162314Z 16015KT 18/11 A2992 RMK A01 T01760110  RH  065%=      5-min Rain = 0
KOD1 162315Z 16013KT 18/11 A2992 RMK A01 T01760110  RH  066%=      5-min Rain = 0
KOD1 162316Z 16015KT 18/11 A2992 RMK A01 T01750111  RH  066%=      5-min Rain = 0
KOD1 162317Z 17015KT 18/11 A2992 RMK A01 T01750111  RH  066%=      5-min Rain = 0
KOD1 162318Z 17014KT 18/11 A2992 RMK A01 T01750111  RH  066%=      5-min Rain = 0
KOD1 162319Z 17015KT 18/11 A2992 RMK A01 T01750111  RH  066%=      5-min Rain = 0
KOD1 162320Z 17014KT 18/11 A2992 RMK A01 T01750111  RH  066%=      5-min Rain = 0
KOD1 162321Z 17015KT 18/11 A2992 RMK A01 T01750111  RH  066%=      5-min Rain = 0
KOD1 162322Z 17014KT 17/11 A2992 RMK A01 T01740111  RH  066%=      5-min Rain = 0
KOD1 162323Z 17014KT 17/11 A2992 RMK A01 T01740111  RH  066%=      5-min Rain = 0
KOD1 162324Z 16014KT 17/11 A2992 RMK A01 T01730111  RH  067%=      5-min Rain = 0
KOD1 162325Z 17014KT 17/11 A2992 RMK A01 T01730111  RH  067%=      5-min Rain = 0
KOD1 162326Z 17016KT 17/11 A2992 RMK A01 T01730111  RH  067%=      5-min Rain = 0
KOD1 162327Z 16013KT 17/11 A2992 RMK A01 T01730111  RH  067%=      5-min Rain = 0
KOD1 162328Z 16015KT 17/11 A2992 RMK A01 T01720111  RH  067%=      5-min Rain = 0
KOD1 162329Z 17014KT 17/11 A2992 RMK A01 T01720112  RH  068%=      5-min Rain = 0
KOD1 162330Z 17013KT 17/11 A2992 RMK A01 T01720112  RH  068%=      5-min Rain = 0
KOD1 162331Z 17014KT 17/11 A2992 RMK A01 T01710112  RH  068%=      5-min Rain = 0
KOD1 162332Z 17014KT 17/11 A2992 RMK A01 T01710112  RH  068%=      5-min Rain = 0
KOD1 162333Z 16014KT 17/11 A2992 RMK A01 T01710112  RH  068%=      5-min Rain = 0
KOD1 162334Z 17013KT 17/11 A2992 RMK A01 T01710112  RH  068%=      5-min Rain = 0
KOD1 162335Z 16012KT 17/11 A2992 RMK A01 T01700111  RH  068%=      5-min Rain = 0
KOD1 162336Z 16014KT 17/11 A2992 RMK A01 T01690112  RH  069%=      5-min Rain = 0
KOD1 162337Z 16014KT 17/11 A2992 RMK A01 T01690111  RH  069%=      5-min Rain = 0
KOD1 162338Z 16014KT 17/11 A2991 RMK A01 T01690111  RH  069%=      5-min Rain = 0
KOD1 162339Z 16014KT 17/11 A2991 RMK A01 T01690111  RH  069%=      5-min Rain = 0
KOD1 162340Z 16013KT 17/11 A2991 RMK A01 T01690111  RH  069%=      5-min Rain = 0
KOD1 162341Z 16015KT 17/11 A2991 RMK A01 T01680111  RH  069%=      5-min Rain = 0
KOD1 162342Z 16015KT 17/11 A2991 RMK A01 T01680111  RH  069%=      5-min Rain = 0
KOD1 162343Z 16014KT 17/11 A2991 RMK A01 T01670111  RH  069%=      5-min Rain = 0
KOD1 162344Z 16014KT 17/11 A2991 RMK A01 T01670111  RH  069%=      5-min Rain = 0
KOD1 162345Z 16014KT 17/11 A2991 RMK A01 T01670111  RH  069%=      5-min Rain = 0
KOD1 162346Z 16014KT 17/11 A2991 RMK A01 T01660111  RH  070%=      5-min Rain = 0
KOD1 162347Z 16013KT 17/11 A2992 RMK A01 T01660111  RH  070%=      5-min Rain = 0
KOD1 162348Z 16013KT 17/11 A2992 RMK A01 T01650110  RH  070%=      5-min Rain = 0
KOD1 162349Z 16013KT 17/11 A2992 RMK A01 T01650110  RH  070%=      5-min Rain = 0
KOD1 162350Z 16014KT 17/11 A2992 RMK A01 T01650110  RH  070%=      5-min Rain = 0
KOD1 162351Z 16014KT 17/11 A2992 RMK A01 T01650110  RH  070%=      5-min Rain = 0
KOD1 162352Z 17013KT 17/11 A2992 RMK A01 T01650110  RH  070%=      5-min Rain = 0
KOD1 162353Z 16013KT 17/11 A2992 RMK A01 T01650110  RH  070%=      5-min Rain = 0
KOD1 162354Z 16013KT 16/11 A2991 RMK A01 T01640109  RH  070%=      5-min Rain = 0
KOD1 162355Z 16013KT 16/11 A2991 RMK A01 T01640110  RH  070%=      5-min Rain = 0
KOD1 162356Z 16014KT 16/11 A2991 RMK A01 T01630109  RH  070%=      5-min Rain = 0
KOD1 162357Z 16012KT 16/11 A2991 RMK A01 T01630109  RH  070%=      5-min Rain = 0
KOD1 162358Z 16013KT 16/11 A2992 RMK A01 T01620109  RH  071%=      5-min Rain = 0
KOD1 162359Z 16013KT 16/11 A2991 RMK A01 T01620109  RH  071%=      5-min Rain = 0
KOD1 170000Z 16012KT 16/11 A2991 RMK A01 T01620109  RH  071%=      5-min Rain = 0
KOD1 170001Z 16013KT 16/11 A2991 RMK A01 T01620109  RH  071%=      5-min Rain = 0
KOD1 170002Z 16013KT 16/11 A2991 RMK A01 T01620109  RH  071%=      5-min Rain = 0
KOD1 170003Z 17013KT 16/11 A2991 RMK A01 T01620109  RH  071%=      5-min Rain = 0
KOD1 170004Z 16013KT 16/11 A2991 RMK A01 T01610109  RH  071%=      5-min Rain = 0
KOD1 170005Z 17011KT 16/11 A2991 RMK A01 T01600108  RH  071%=      5-min Rain = 0
KOD1 170006Z 17013KT 16/11 A2992 RMK A01 T01600108  RH  072%=      5-min Rain = 0
KOD1 170007Z 16013KT 16/11 A2992 RMK A01 T01600108  RH  072%=      5-min Rain = 0
KOD1 170008Z 17012KT 16/11 A2992 RMK A01 T01590108  RH  071%=      5-min Rain = 0
KOD1 170009Z 17013KT 16/11 A2992 RMK A01 T01590108  RH  072%=      5-min Rain = 0
KOD1 170010Z 17013KT 16/11 A2992 RMK A01 T01590108  RH  072%=      5-min Rain = 0
KOD1 170011Z 17013KT 16/11 A2991 RMK A01 T01580108  RH  072%=      5-min Rain = 0
KOD1 170012Z 17013KT 16/11 A2991 RMK A01 T01580108  RH  072%=      5-min Rain = 0
KOD1 170013Z 17013KT 16/11 A2991 RMK A01 T01580108  RH  072%=      5-min Rain = 0
KOD1 170014Z 17013KT 16/11 A2991 RMK A01 T01570108  RH  072%=      5-min Rain = 0
KOD1 170015Z 16013KT 16/11 A2991 RMK A01 T01570108  RH  073%=      5-min Rain = 0
KOD1 170016Z 17013KT 16/11 A2991 RMK A01 T01570108  RH  073%=      5-min Rain = 0
KOD1 170017Z 16013KT 16/11 A2991 RMK A01 T01570108  RH  073%=      5-min Rain = 0
KOD1 170018Z 16012KT 16/11 A2991 RMK A01 T01560109  RH  073%=      5-min Rain = 0
KOD1 170019Z 16014KT 16/11 A2991 RMK A01 T01560109  RH  073%=      5-min Rain = 0
KOD1 170020Z 17013KT 16/11 A2992 RMK A01 T01570109  RH  073%=      5-min Rain = 0
KOD1 170021Z 17013KT 16/11 A2992 RMK A01 T01570109  RH  073%=      5-min Rain = 0
KOD1 170022Z 17013KT 16/11 A2992 RMK A01 T01570109  RH  073%=      5-min Rain = 0
KOD1 170023Z 17013KT 16/11 A2992 RMK A01 T01570110  RH  073%=      5-min Rain = 0
KOD1 170024Z 17013KT 16/11 A2992 RMK A01 T01570110  RH  073%=      5-min Rain = 0
KOD1 170025Z 17013KT 16/11 A2992 RMK A01 T01570110  RH  073%=      5-min Rain = 0
KOD1 170026Z 17014KT 16/11 A2992 RMK A01 T01570110  RH  074%=      5-min Rain = 0
KOD1 170027Z 17014KT 16/11 A2992 RMK A01 T01570110  RH  074%=      5-min Rain = 0
KOD1 170028Z 17014KT 16/11 A2992 RMK A01 T01570110  RH  074%=      5-min Rain = 0
KOD1 170029Z 17014KT 16/11 A2992 RMK A01 T01570110  RH  074%=      5-min Rain = 0
KOD1 170030Z 17015KT 16/11 A2992 RMK A01 T01560110  RH  074%=      5-min Rain = 0
KOD1 170031Z 17015KT 16/11 A2992 RMK A01 T01560111  RH  074%=      5-min Rain = 0
KOD1 170032Z 17015KT 16/11 A2992 RMK A01 T01560111  RH  074%=      5-min Rain = 0
KOD1 170033Z 17014KT 16/11 A2992 RMK A01 T01550110  RH  074%=      5-min Rain = 0
KOD1 170034Z 17014KT 16/11 A2992 RMK A01 T01550111  RH  075%=      5-min Rain = 0
KOD1 170035Z 17013KT 16/11 A2992 RMK A01 T01550111  RH  075%=      5-min Rain = 0
KOD1 170036Z 17015KT 16/11 A2992 RMK A01 T01550111  RH  075%=      5-min Rain = 0
KOD1 170037Z 17014KT 16/11 A2992 RMK A01 T01550111  RH  075%=      5-min Rain = 0
KOD1 170038Z 17016KT 16/11 A2992 RMK A01 T01550111  RH  075%=      5-min Rain = 0
KOD1 170039Z 17015KT 16/11 A2992 RMK A01 T01550111  RH  075%=      5-min Rain = 0
KOD1 170040Z 17014KT 16/11 A2992 RMK A01 T01560111  RH  075%=      5-min Rain = 0
KOD1 170041Z 17014KT 16/11 A2992 RMK A01 T01550111  RH  075%=      5-min Rain = 0
KOD1 170042Z 17016KT 16/11 A2992 RMK A01 T01550111  RH  075%=      5-min Rain = 0
KOD1 170043Z 17015KT 16/11 A2992 RMK A01 T01550111  RH  075%=      5-min Rain = 0
KOD1 170044Z 17014KT 16/11 A2992 RMK A01 T01560110  RH  074%=      5-min Rain = 0
KOD1 170045Z 17014KT 16/11 A2992 RMK A01 T01550110  RH  075%=      5-min Rain = 0
KOD1 170046Z 17014KT 15/11 A2992 RMK A01 T01540110  RH  075%=      5-min Rain = 0
KOD1 170047Z 17015KT 15/11 A2992 RMK A01 T01540110  RH  075%=      5-min Rain = 0
KOD1 170048Z 17015KT 15/11 A2992 RMK A01 T01540110  RH  075%=      5-min Rain = 0
KOD1 170049Z 17014KT 15/11 A2992 RMK A01 T01540110  RH  075%=      5-min Rain = 0
KOD1 170050Z 17015KT 15/11 A2992 RMK A01 T01530110  RH  075%=      5-min Rain = 0
KOD1 170051Z 17015KT 15/11 A2992 RMK A01 T01530110  RH  075%=      5-min Rain = 0
KOD1 170052Z 17014KT 15/11 A2992 RMK A01 T01530110  RH  075%=      5-min Rain = 0
KOD1 170053Z 17013KT 15/11 A2992 RMK A01 T01520109  RH  076%=      5-min Rain = 0
KOD1 170054Z 17014KT 15/11 A2992 RMK A01 T01510110  RH  076%=      5-min Rain = 0
KOD1 170055Z 17015KT 15/11 A2992 RMK A01 T01510110  RH  076%=      5-min Rain = 0
KOD1 170056Z 17015KT 15/11 A2992 RMK A01 T01510110  RH  076%=      5-min Rain = 0
KOD1 170057Z 17015KT 15/11 A2992 RMK A01 T01510110  RH  076%=      5-min Rain = 0
KOD1 170058Z 17013KT 15/11 A2992 RMK A01 T01500109  RH  076%=      5-min Rain = 0
KOD1 170059Z 17013KT 15/11 A2992 RMK A01 T01490109  RH  077%=      5-min Rain = 0
KOD1 170100Z 17014KT 15/11 A2992 RMK A01 T01490109  RH  077%=      5-min Rain = 0
KOD1 170101Z 17015KT 15/11 A2992 RMK A01 T01480109  RH  077%=      5-min Rain = 0
KOD1 170102Z 17015KT 15/11 A2992 RMK A01 T01480109  RH  077%=      5-min Rain = 0
KOD1 170103Z 17015KT 15/11 A2992 RMK A01 T01480109  RH  077%=      5-min Rain = 0
KOD1 170104Z 17016KT 15/11 A2992 RMK A01 T01490110  RH  077%=      5-min Rain = 0
KOD1 170105Z 17015KT 15/11 A2992 RMK A01 T01490109  RH  077%=      5-min Rain = 0
KOD1 170106Z 17015KT 15/11 A2992 RMK A01 T01490109  RH  077%=      5-min Rain = 0
KOD1 170107Z 17014KT 15/11 A2992 RMK A01 T01490109  RH  077%=      5-min Rain = 0
KOD1 170108Z 17014KT 15/11 A2992 RMK A01 T01490109  RH  077%=      5-min Rain = 0
KOD1 170109Z 17013KT 15/11 A2992 RMK A01 T01480109  RH  077%=      5-min Rain = 0
KOD1 170110Z 17014KT 15/11 A2992 RMK A01 T01480109  RH  078%=      5-min Rain = 0
KOD1 170111Z 17015KT 15/11 A2992 RMK A01 T01480109  RH  078%=      5-min Rain = 0
KOD1 170112Z 17015KT 15/11 A2992 RMK A01 T01470109  RH  078%=      5-min Rain = 0
KOD1 170113Z 17015KT 15/11 A2992 RMK A01 T01470109  RH  078%=      5-min Rain = 0
KOD1 170114Z 17016KT 15/11 A2993 RMK A01 T01470109  RH  078%=      5-min Rain = 0
KOD1 170115Z 17015KT 15/11 A2993 RMK A01 T01470109  RH  078%=      5-min Rain = 0
KOD1 170116Z 17015KT 15/11 A2993 RMK A01 T01470109  RH  078%=      5-min Rain = 0
KOD1 170117Z 17015KT 15/11 A2993 RMK A01 T01470109  RH  078%=      5-min Rain = 0
KOD1 170118Z 17015KT 15/11 A2993 RMK A01 T01460109  RH  078%=      5-min Rain = 0
KOD1 170119Z 17016KT 15/11 A2993 RMK A01 T01460109  RH  078%=      5-min Rain = 0
KOD1 170120Z 17015KT 15/11 A2993 RMK A01 T01460108  RH  078%=      5-min Rain = 0
KOD1 170121Z 17016KT 15/11 A2993 RMK A01 T01450109  RH  078%=      5-min Rain = 0
KOD1 170122Z 17014KT 15/11 A2993 RMK A01 T01450108  RH  078%=      5-min Rain = 0
KOD1 170123Z 17015KT 15/11 A2993 RMK A01 T01450108  RH  079%=      5-min Rain = 0
KOD1 170124Z 18015KT 14/11 A2993 RMK A01 T01440108  RH  079%=      5-min Rain = 0
KOD1 170125Z 17016KT 14/11 A2993 RMK A01 T01440108  RH  079%=      5-min Rain = 0
KOD1 170126Z 18015KT 14/11 A2993 RMK A01 T01440108  RH  079%=      5-min Rain = 0
KOD1 170127Z 18016KT 14/11 A2993 RMK A01 T01430108  RH  079%=      5-min Rain = 0
KOD1 170128Z 18016KT 14/11 A2993 RMK A01 T01430108  RH  079%=      5-min Rain = 0
KOD1 170129Z 18016KT 14/11 A2993 RMK A01 T01430108  RH  079%=      5-min Rain = 0
KOD1 170130Z 18015KT 14/11 A2993 RMK A01 T01420108  RH  079%=      5-min Rain = 0
KOD1 170131Z 17015KT 14/11 A2993 RMK A01 T01420108  RH  080%=      5-min Rain = 0
KOD1 170132Z 18015KT 14/11 A2993 RMK A01 T01420107  RH  080%=      5-min Rain = 0
KOD1 170133Z 18015KT 14/11 A2993 RMK A01 T01420107  RH  080%=      5-min Rain = 0
KOD1 170134Z 18013KT 14/11 A2993 RMK A01 T01410107  RH  080%=      5-min Rain = 0
KOD1 170135Z 17015KT 14/11 A2993 RMK A01 T01400107  RH  080%=      5-min Rain = 0
KOD1 170136Z 18015KT 14/11 A2993 RMK A01 T01400107  RH  080%=      5-min Rain = 0
KOD1 170137Z 17014KT 14/11 A2993 RMK A01 T01400107  RH  080%=      5-min Rain = 0
KOD1 170138Z 17013KT 14/11 A2993 RMK A01 T01400106  RH  080%=      5-min Rain = 0
KOD1 170139Z 17014KT 14/11 A2993 RMK A01 T01390107  RH  081%=      5-min Rain = 0
KOD1 170140Z 17015KT 14/11 A2993 RMK A01 T01390107  RH  081%=      5-min Rain = 0
KOD1 170141Z 18014KT 14/11 A2993 RMK A01 T01390106  RH  081%=      5-min Rain = 0
KOD1 170142Z 18014KT 14/11 A2993 RMK A01 T01390106  RH  081%=      5-min Rain = 0
KOD1 170143Z 17015KT 14/11 A2993 RMK A01 T01380106  RH  081%=      5-min Rain = 0
KOD1 170144Z 18015KT 14/11 A2993 RMK A01 T01380106  RH  081%=      5-min Rain = 0
KOD1 170145Z 18014KT 14/11 A2993 RMK A01 T01380106  RH  081%=      5-min Rain = 0
KOD1 170146Z 18014KT 14/11 A2993 RMK A01 T01380106  RH  081%=      5-min Rain = 0
KOD1 170147Z 18015KT 14/11 A2993 RMK A01 T01380106  RH  081%=      5-min Rain = 0
KOD1 170148Z 18014KT 14/11 A2993 RMK A01 T01380106  RH  081%=      5-min Rain = 0
KOD1 170149Z 18014KT 14/11 A2994 RMK A01 T01380106  RH  081%=      5-min Rain = 0
KOD1 170150Z 18014KT 14/11 A2994 RMK A01 T01380106  RH  081%=      5-min Rain = 0
KOD1 170151Z 18015KT 14/11 A2994 RMK A01 T01380106  RH  081%=      5-min Rain = 0
KOD1 170152Z 18014KT 14/11 A2994 RMK A01 T01380106  RH  081%=      5-min Rain = 0
KOD1 170153Z 18015KT 14/11 A2994 RMK A01 T01380106  RH  081%=      5-min Rain = 0
KOD1 170154Z 18013KT 14/11 A2994 RMK A01 T01380105  RH  081%=      5-min Rain = 0
KOD1 170155Z 18014KT 14/11 A2994 RMK A01 T01370105  RH  081%=      5-min Rain = 0
KOD1 170156Z 18015KT 14/11 A2994 RMK A01 T01370105  RH  081%=      5-min Rain = 0
KOD1 170157Z 18013KT 14/11 A2994 RMK A01 T01370105  RH  081%=      5-min Rain = 0
KOD1 170158Z 19014KT 14/11 A2994 RMK A01 T01360105  RH  081%=      5-min Rain = 0
KOD1 170159Z 18014KT 14/11 A2994 RMK A01 T01370105  RH  081%=      5-min Rain = 0
KOD1 170200Z 18013KT 14/11 A2994 RMK A01 T01360105  RH  081%=      5-min Rain = 0
KOD1 170201Z 18013KT 14/10 A2994 RMK A01 T01360104  RH  081%=      5-min Rain = 0
KOD1 170202Z 19013KT 14/11 A2994 RMK A01 T01350105  RH  082%=      5-min Rain = 0
KOD1 170203Z 18013KT 14/11 A2994 RMK A01 T01350105  RH  082%=      5-min Rain = 0
KOD1 170204Z 18013KT 14/10 A2994 RMK A01 T01350104  RH  081%=      5-min Rain = 0
KOD1 170205Z 18014KT 14/11 A2994 RMK A01 T01350105  RH  082%=      5-min Rain = 0
KOD1 170206Z 18013KT 14/10 A2994 RMK A01 T01350104  RH  082%=      5-min Rain = 0
KOD1 170207Z 18012KT 14/10 A2994 RMK A01 T01350104  RH  082%=      5-min Rain = 0
KOD1 170208Z 18013KT 13/10 A2994 RMK A01 T01340104  RH  082%=      5-min Rain = 0
KOD1 170209Z 18013KT 13/10 A2994 RMK A01 T01340104  RH  082%=      5-min Rain = 0
KOD1 170210Z 18015KT 13/10 A2994 RMK A01 T01340104  RH  082%=      5-min Rain = 0
KOD1 170211Z 18013KT 14/10 A2994 RMK A01 T01350104  RH  082%=      5-min Rain = 0
KOD1 170212Z 18013KT 13/10 A2994 RMK A01 T01340104  RH  082%=      5-min Rain = 0
KOD1 170213Z 18014KT 13/10 A2994 RMK A01 T01340104  RH  082%=      5-min Rain = 0
KOD1 170214Z 18015KT 13/10 A2994 RMK A01 T01340104  RH  082%=      5-min Rain = 0
KOD1 170215Z 18015KT 14/10 A2994 RMK A01 T01350104  RH  082%=      5-min Rain = 0
KOD1 170216Z 18015KT 14/10 A2994 RMK A01 T01350104  RH  081%=      5-min Rain = 0
KOD1 170217Z 18014KT 14/10 A2994 RMK A01 T01350104  RH  082%=      5-min Rain = 0
KOD1 170218Z 18014KT 13/10 A2994 RMK A01 T01340104  RH  082%=      5-min Rain = 0
KOD1 170219Z 18014KT 13/10 A2994 RMK A01 T01340103  RH  082%=      5-min Rain = 0
KOD1 170220Z 18014KT 13/10 A2994 RMK A01 T01340103  RH  082%=      5-min Rain = 0
KOD1 170221Z 19014KT 13/10 A2994 RMK A01 T01330103  RH  082%=      5-min Rain = 0
KOD1 170222Z 18013KT 13/10 A2994 RMK A01 T01330103  RH  082%=      5-min Rain = 0
KOD1 170223Z 18012KT 13/10 A2994 RMK A01 T01330103  RH  082%=      5-min Rain = 0
KOD1 170224Z 19012KT 13/10 A2994 RMK A01 T01320103  RH  082%=      5-min Rain = 0
KOD1 170225Z 19012KT 13/10 A2994 RMK A01 T01320103  RH  082%=      5-min Rain = 0
KOD1 170226Z 18015KT 13/10 A2994 RMK A01 T01320103  RH  083%=      5-min Rain = 0
KOD1 170227Z 18014KT 13/10 A2994 RMK A01 T01330103  RH  082%=      5-min Rain = 0
KOD1 170228Z 19014KT 13/10 A2994 RMK A01 T01330103  RH  082%=      5-min Rain = 0
KOD1 170229Z 19013KT 13/10 A2994 RMK A01 T01330103  RH  082%=      5-min Rain = 0
KOD1 170230Z 19014KT 13/10 A2994 RMK A01 T01330103  RH  082%=      5-min Rain = 0
KOD1 170231Z 19013KT 13/10 A2994 RMK A01 T01330103  RH  082%=      5-min Rain = 0
KOD1 170232Z 19013KT 13/10 A2994 RMK A01 T01340103  RH  082%=      5-min Rain = 0
KOD1 170233Z 19013KT 13/10 A2994 RMK A01 T01340103  RH  082%=      5-min Rain = 0
KOD1 170234Z 19014KT 13/10 A2994 RMK A01 T01340103  RH  082%=      5-min Rain = 0
KOD1 170235Z 19012KT 13/10 A2994 RMK A01 T01340103  RH  081%=      5-min Rain = 0
KOD1 170236Z 19012KT 13/10 A2994 RMK A01 T01330102  RH  082%=      5-min Rain = 0
KOD1 170237Z 19013KT 13/10 A2994 RMK A01 T01330103  RH  082%=      5-min Rain = 0
KOD1 170238Z 19014KT 13/10 A2994 RMK A01 T01340103  RH  082%=      5-min Rain = 0
KOD1 170239Z 20012KT 13/10 A2994 RMK A01 T01340102  RH  081%=      5-min Rain = 0
KOD1 170240Z 19012KT 13/10 A2994 RMK A01 T01340103  RH  081%=      5-min Rain = 0
KOD1 170241Z 19013KT 13/10 A2994 RMK A01 T01340103  RH  081%=      5-min Rain = 0
KOD1 170242Z 19012KT 13/10 A2994 RMK A01 T01340102  RH  081%=      5-min Rain = 0
KOD1 170243Z 19013KT 13/10 A2994 RMK A01 T01340102  RH  081%=      5-min Rain = 0
KOD1 170244Z 19012KT 13/10 A2994 RMK A01 T01340102  RH  081%=      5-min Rain = 0
KOD1 170245Z 20013KT 13/10 A2994 RMK A01 T01340102  RH  081%=      5-min Rain = 0
KOD1 170246Z 20012KT 13/10 A2994 RMK A01 T01330102  RH  081%=      5-min Rain = 0
KOD1 170247Z 19013KT 13/10 A2994 RMK A01 T01320102  RH  082%=      5-min Rain = 0
KOD1 170248Z 20012KT 13/10 A2994 RMK A01 T01320102  RH  082%=      5-min Rain = 0
KOD1 170249Z 20013KT 13/10 A2994 RMK A01 T01320102  RH  082%=      5-min Rain = 0
KOD1 170250Z 20013KT 13/10 A2994 RMK A01 T01320102  RH  082%=      5-min Rain = 0
KOD1 170251Z 20012KT 13/10 A2994 RMK A01 T01320102  RH  082%=      5-min Rain = 0
KOD1 170252Z 20012KT 13/10 A2994 RMK A01 T01320101  RH  082%=      5-min Rain = 0
KOD1 170253Z 20014KT 13/10 A2994 RMK A01 T01320102  RH  082%=      5-min Rain = 0
KOD1 170254Z 20014KT 13/10 A2994 RMK A01 T01320102  RH  082%=      5-min Rain = 0
KOD1 170255Z 20013KT 13/10 A2994 RMK A01 T01320102  RH  082%=      5-min Rain = 0
KOD1 170256Z 20011KT 13/10 A2994 RMK A01 T01320101  RH  082%=      5-min Rain = 0
KOD1 170257Z 20012KT 13/10 A2994 RMK A01 T01310101  RH  082%=      5-min Rain = 0
KOD1 170258Z 20013KT 13/10 A2994 RMK A01 T01310101  RH  082%=      5-min Rain = 0
KOD1 170259Z 20012KT 13/10 A2994 RMK A01 T01310101  RH  082%=      5-min Rain = 0
KOD1 170300Z 20012KT 13/10 A2994 RMK A01 T01310101  RH  082%=      5-min Rain = 0
KOD1 170301Z 20012KT 13/10 A2994 RMK A01 T01310101  RH  082%=      5-min Rain = 0
KOD1 170302Z 20012KT 13/10 A2994 RMK A01 T01310101  RH  082%=      5-min Rain = 0
KOD1 170303Z 20012KT 13/10 A2994 RMK A01 T01300101  RH  082%=      5-min Rain = 0
KOD1 170304Z 20012KT 13/10 A2994 RMK A01 T01300100  RH  082%=      5-min Rain = 0
KOD1 170305Z 20012KT 13/10 A2994 RMK A01 T01290100  RH  083%=      5-min Rain = 0
KOD1 170306Z 20011KT 13/10 A2994 RMK A01 T01280100  RH  083%=      5-min Rain = 0
KOD1 170307Z 20012KT 13/10 A2994 RMK A01 T01270100  RH  083%=      5-min Rain = 0
KOD1 170308Z 20013KT 13/10 A2994 RMK A01 T01270100  RH  084%=      5-min Rain = 0
KOD1 170309Z 20012KT 13/10 A2994 RMK A01 T01270100  RH  084%=      5-min Rain = 0
KOD1 170310Z 21012KT 13/10 A2994 RMK A01 T01270099  RH  083%=      5-min Rain = 0
KOD1 170311Z 21011KT 13/10 A2994 RMK A01 T01260099  RH  084%=      5-min Rain = 0
KOD1 170312Z 21011KT 13/10 A2994 RMK A01 T01250099  RH  084%=      5-min Rain = 0
KOD1 170313Z 21012KT 13/10 A2994 RMK A01 T01250099  RH  084%=      5-min Rain = 0
KOD1 170314Z 21012KT 12/10 A2995 RMK A01 T01240099  RH  084%=      5-min Rain = 0
KOD1 170315Z 20012KT 12/10 A2994 RMK A01 T01240099  RH  085%=      5-min Rain = 0
KOD1 170316Z 20013KT 12/10 A2994 RMK A01 T01240099  RH  085%=      5-min Rain = 0
KOD1 170317Z 21012KT 12/10 A2994 RMK A01 T01240098  RH  084%=      5-min Rain = 0
KOD1 170318Z 21011KT 12/10 A2995 RMK A01 T01230098  RH  085%=      5-min Rain = 0
KOD1 170319Z 21011KT 12/10 A2995 RMK A01 T01220098  RH  085%=      5-min Rain = 0
KOD1 170320Z 22010KT 12/10 A2995 RMK A01 T01220097  RH  085%=      5-min Rain = 0
KOD1 170321Z 22009KT 12/10 A2995 RMK A01 T01210096  RH  085%=      5-min Rain = 0
KOD1 170322Z 22010KT 12/10 A2995 RMK A01 T01200096  RH  086%=      5-min Rain = 0
KOD1 170323Z 21010KT 12/10 A2995 RMK A01 T01190096  RH  086%=      5-min Rain = 0
KOD1 170324Z 21009KT 12/10 A2995 RMK A01 T01180096  RH  086%=      5-min Rain = 0
KOD1 170325Z 21010KT 12/10 A2995 RMK A01 T01180096  RH  087%=      5-min Rain = 0
KOD1 170326Z 23009KT 12/10 A2995 RMK A01 T01180096  RH  086%=      5-min Rain = 0
KOD1 170327Z 24009KT 12/09 A2995 RMK A01 T01170094  RH  086%=      5-min Rain = 0
KOD1 170328Z 22010KT 12/09 A2995 RMK A01 T01160094  RH  087%=      5-min Rain = 0
KOD1 170329Z 21011KT 12/09 A2995 RMK A01 T01150094  RH  087%=      5-min Rain = 0
KOD1 170330Z 20011KT 11/09 A2995 RMK A01 T01140094  RH  087%=      5-min Rain = 0
KOD1 170331Z 20011KT 11/09 A2995 RMK A01 T01130093  RH  088%=      5-min Rain = 0
KOD1 170332Z 20010KT 11/09 A2995 RMK A01 T01120093  RH  088%=      5-min Rain = 0
KOD1 170333Z 21010KT 11/09 A2995 RMK A01 T01120093  RH  089%=      5-min Rain = 0
KOD1 170334Z 21009KT 11/09 A2995 RMK A01 T01120094  RH  089%=      5-min Rain = 0
KOD1 170335Z 22009KT 11/09 A2995 RMK A01 T01120094  RH  089%=      5-min Rain = 0
KOD1 170336Z 22009KT 11/09 A2995 RMK A01 T01120093  RH  088%=      5-min Rain = 0
KOD1 170337Z 22010KT 11/09 A2995 RMK A01 T01110092  RH  088%=      5-min Rain = 0
KOD1 170338Z 21010KT 11/09 A2995 RMK A01 T01110093  RH  089%=      5-min Rain = 0
KOD1 170339Z 20011KT 11/09 A2995 RMK A01 T01100092  RH  089%=      5-min Rain = 0
KOD1 170340Z 19011KT 11/09 A2995 RMK A01 T01100092  RH  089%=      5-min Rain = 0
KOD1 170341Z 21010KT 11/09 A2995 RMK A01 T01090090  RH  088%=      5-min Rain = 0
KOD1 170342Z 24009KT 11/09 A2995 RMK A01 T01080091  RH  089%=      5-min Rain = 0
KOD1 170343Z 23010KT 11/09 A2995 RMK A01 T01080091  RH  090%=      5-min Rain = 0
KOD1 170344Z 22010KT 11/09 A2995 RMK A01 T01080092  RH  090%=      5-min Rain = 0
KOD1 170345Z 21010KT 11/09 A2995 RMK A01 T01080092  RH  090%=      5-min Rain = 0
KOD1 170346Z 21011KT 11/09 A2995 RMK A01 T01080091  RH  089%=      5-min Rain = 0
KOD1 170347Z 20012KT 11/09 A2994 RMK A01 T01080092  RH  090%=      5-min Rain = 0
KOD1 170348Z 20012KT 11/09 A2994 RMK A01 T01080092  RH  090%=      5-min Rain = 0
KOD1 170349Z 23010KT 11/09 A2995 RMK A01 T01080092  RH  090%=      5-min Rain = 0
KOD1 170350Z 23010KT 11/09 A2995 RMK A01 T01080092  RH  090%=      5-min Rain = 0
KOD1 170351Z 21012KT 11/09 A2995 RMK A01 T01080092  RH  090%=      5-min Rain = 0
KOD1 170352Z 20012KT 11/09 A2994 RMK A01 T01080093  RH  090%=      5-min Rain = 0
KOD1 170353Z 21012KT 11/09 A2994 RMK A01 T01090094  RH  090%=      5-min Rain = 0
KOD1 170354Z 21012KT 11/09 A2994 RMK A01 T01100094  RH  090%=      5-min Rain = 0
KOD1 170355Z 22012KT 11/09 A2995 RMK A01 T01110094  RH  090%=      5-min Rain = 0
KOD1 170356Z 22013KT 11/10 A2995 RMK A01 T01120095  RH  089%=      5-min Rain = 0
KOD1 170357Z 22012KT 11/09 A2995 RMK A01 T01120094  RH  089%=      5-min Rain = 0
KOD1 170358Z 22012KT 11/09 A2995 RMK A01 T01120094  RH  088%=      5-min Rain = 0
KOD1 170359Z 22012KT 11/09 A2995 RMK A01 T01120093  RH  088%=      5-min Rain = 0
KOD1 170400Z 22012KT 11/09 A2995 RMK A01 T01110093  RH  089%=      5-min Rain = 0
KOD1 170401Z 21013KT 11/09 A2994 RMK A01 T01110094  RH  089%=      5-min Rain = 0
KOD1 170402Z 21013KT 11/09 A2994 RMK A01 T01110094  RH  089%=      5-min Rain = 0
KOD1 170403Z 21013KT 11/09 A2995 RMK A01 T01110094  RH  089%=      5-min Rain = 0
KOD1 170404Z 22012KT 11/10 A2995 RMK A01 T01120095  RH  089%=      5-min Rain = 0
KOD1 170405Z 22012KT 11/09 A2995 RMK A01 T01120094  RH  089%=      5-min Rain = 0
KOD1 170406Z 22012KT 11/09 A2995 RMK A01 T01120094  RH  088%=      5-min Rain = 0
KOD1 170407Z 22014KT 11/09 A2995 RMK A01 T01130094  RH  088%=      5-min Rain = 0
KOD1 170408Z 22015KT 11/09 A2994 RMK A01 T01140094  RH  087%=      5-min Rain = 0
KOD1 170409Z 22014KT 12/09 A2994 RMK A01 T01170093  RH  086%=      5-min Rain = 0
KOD1 170410Z 22014KT 12/09 A2994 RMK A01 T01170094  RH  085%=      5-min Rain = 0
KOD1 170411Z 22013KT 12/09 A2994 RMK A01 T01180094  RH  085%=      5-min Rain = 0
KOD1 170412Z 22014KT 12/09 A2994 RMK A01 T01170094  RH  085%=      5-min Rain = 0
KOD1 170413Z 22014KT 12/09 A2994 RMK A01 T01180094  RH  085%=      5-min Rain = 0
KOD1 170414Z 22014KT 12/09 A2995 RMK A01 T01180093  RH  085%=      5-min Rain = 0
KOD1 170415Z 22014KT 12/09 A2994 RMK A01 T01180093  RH  085%=      5-min Rain = 0
KOD1 170416Z 22013KT 12/09 A2995 RMK A01 T01180092  RH  084%=      5-min Rain = 0
KOD1 170417Z 22013KT 12/09 A2994 RMK A01 T01170092  RH  084%=      5-min Rain = 0
KOD1 170418Z 23013KT 12/09 A2995 RMK A01 T01170091  RH  084%=      5-min Rain = 0
KOD1 170419Z 22013KT 12/09 A2995 RMK A01 T01170091  RH  084%=      5-min Rain = 0
KOD1 170420Z 22013KT 12/09 A2995 RMK A01 T01170090  RH  084%=      5-min Rain = 0
KOD1 170421Z 22014KT 12/09 A2994 RMK A01 T01170090  RH  084%=      5-min Rain = 0
KOD1 170422Z 22014KT 12/09 A2995 RMK A01 T01170089  RH  083%=      5-min Rain = 0
KOD1 170423Z 22014KT 12/09 A2995 RMK A01 T01170089  RH  082%=      5-min Rain = 0
KOD1 170424Z 23013KT 12/09 A2995 RMK A01 T01180088  RH  082%=      5-min Rain = 0
KOD1 170425Z 22014KT 12/09 A2995 RMK A01 T01170088  RH  082%=      5-min Rain = 0
KOD1 170426Z 22013KT 12/09 A2995 RMK A01 T01170087  RH  082%=      5-min Rain = 0
KOD1 170427Z 23013KT 12/09 A2995 RMK A01 T01170086  RH  082%=      5-min Rain = 0
KOD1 170428Z 23013KT 12/09 A2995 RMK A01 T01160086  RH  081%=      5-min Rain = 0
KOD1 170429Z 23014KT 12/09 A2995 RMK A01 T01160085  RH  081%=      5-min Rain = 0
KOD1 170430Z 23013KT 12/08 A2995 RMK A01 T01170084  RH  080%=      5-min Rain = 0
KOD1 170431Z 23012KT 12/08 A2995 RMK A01 T01170084  RH  080%=      5-min Rain = 0
KOD1 170432Z 23013KT 12/08 A2995 RMK A01 T01160083  RH  080%=      5-min Rain = 0
KOD1 170433Z 23013KT 12/08 A2995 RMK A01 T01160082  RH  080%=      5-min Rain = 0
KOD1 170434Z 23012KT 12/08 A2995 RMK A01 T01160081  RH  079%=      5-min Rain = 0
KOD1 170435Z 23013KT 12/08 A2995 RMK A01 T01160081  RH  079%=      5-min Rain = 0
KOD1 170436Z 23011KT 12/08 A2995 RMK A01 T01170080  RH  078%=      5-min Rain = 0
KOD1 170437Z 23013KT 12/08 A2995 RMK A01 T01170079  RH  077%=      5-min Rain = 0
KOD1 170438Z 23012KT 12/08 A2995 RMK A01 T01170078  RH  077%=      5-min Rain = 0
KOD1 170439Z 23013KT 12/08 A2995 RMK A01 T01170077  RH  076%=      5-min Rain = 0
KOD1 170440Z 23013KT 12/08 A2995 RMK A01 T01180076  RH  076%=      5-min Rain = 0
KOD1 170441Z 23013KT 12/08 A2995 RMK A01 T01180075  RH  075%=      5-min Rain = 0
KOD1 170442Z 23013KT 12/07 A2995 RMK A01 T01180074  RH  074%=      5-min Rain = 0
KOD1 170443Z 23012KT 12/07 A2995 RMK A01 T01180074  RH  074%=      5-min Rain = 0
KOD1 170444Z 23013KT 12/07 A2995 RMK A01 T01180073  RH  074%=      5-min Rain = 0
KOD1 170445Z 23013KT 12/07 A2995 RMK A01 T01180072  RH  074%=      5-min Rain = 0
KOD1 170446Z 23012KT 12/07 A2995 RMK A01 T01180072  RH  073%=      5-min Rain = 0
KOD1 170447Z 23013KT 12/07 A2995 RMK A01 T01170071  RH  073%=      5-min Rain = 0
KOD1 170448Z 23013KT 12/07 A2995 RMK A01 T01170071  RH  073%=      5-min Rain = 0
KOD1 170449Z 23012KT 12/07 A2995 RMK A01 T01170070  RH  073%=      5-min Rain = 0
KOD1 170450Z 24012KT 12/07 A2995 RMK A01 T01160070  RH  073%=      5-min Rain = 0
KOD1 170451Z 23012KT 12/07 A2995 RMK A01 T01160069  RH  073%=      5-min Rain = 0
KOD1 170452Z 23012KT 12/07 A2995 RMK A01 T01160069  RH  073%=      5-min Rain = 0
KOD1 170453Z 24012KT 12/07 A2995 RMK A01 T01150068  RH  073%=      5-min Rain = 0
KOD1 170454Z 24012KT 11/07 A2995 RMK A01 T01140068  RH  073%=      5-min Rain = 0
KOD1 170455Z 24012KT 11/07 A2995 RMK A01 T01140067  RH  073%=      5-min Rain = 0
KOD1 170456Z 24012KT 11/07 A2995 RMK A01 T01130067  RH  073%=      5-min Rain = 0
KOD1 170457Z 24012KT 11/07 A2995 RMK A01 T01120067  RH  073%=      5-min Rain = 0
KOD1 170458Z 24013KT 11/07 A2995 RMK A01 T01120066  RH  073%=      5-min Rain = 0
KOD1 170459Z 24013KT 11/07 A2995 RMK A01 T01110066  RH  073%=      5-min Rain = 0
KOD1 170500Z 23013KT 11/07 A2995 RMK A01 T01110065  RH  073%=      5-min Rain = 0
KOD1 170501Z 24012KT 11/07 A2995 RMK A01 T01110065  RH  073%=      5-min Rain = 0
KOD1 170502Z 24012KT 11/06 A2995 RMK A01 T01100064  RH  073%=      5-min Rain = 0
KOD1 170503Z 23013KT 11/06 A2995 RMK A01 T01100064  RH  073%=      5-min Rain = 0
KOD1 170504Z 23013KT 11/06 A2996 RMK A01 T01100063  RH  073%=      5-min Rain = 0
KOD1 170505Z 23013KT 11/06 A2996 RMK A01 T01100063  RH  073%=      5-min Rain = 0
KOD1 170506Z 23013KT 11/06 A2996 RMK A01 T01100062  RH  073%=      5-min Rain = 0
KOD1 170507Z 23013KT 11/06 A2996 RMK A01 T01100062  RH  073%=      5-min Rain = 0
KOD1 170508Z 23013KT 11/06 A2996 RMK A01 T01100062  RH  072%=      5-min Rain = 0
KOD1 170509Z 23013KT 11/06 A2996 RMK A01 T01090062  RH  072%=      5-min Rain = 0
KOD1 170510Z 23013KT 11/06 A2996 RMK A01 T01090061  RH  072%=      5-min Rain = 0
KOD1 170511Z 23012KT 11/06 A2996 RMK A01 T01090061  RH  072%=      5-min Rain = 0
KOD1 170512Z 23012KT 11/06 A2996 RMK A01 T01080061  RH  072%=      5-min Rain = 0
KOD1 170513Z 23012KT 11/06 A2996 RMK A01 T01070060  RH  073%=      5-min Rain = 0
KOD1 170514Z 23012KT 11/06 A2996 RMK A01 T01070060  RH  073%=      5-min Rain = 0
KOD1 170515Z 24012KT 11/06 A2996 RMK A01 T01060059  RH  073%=      5-min Rain = 0
KOD1 170516Z 23011KT 11/06 A2996 RMK A01 T01060059  RH  073%=      5-min Rain = 0
KOD1 170517Z 23012KT 11/06 A2996 RMK A01 T01050058  RH  073%=      5-min Rain = 0
KOD1 170518Z 23011KT 11/06 A2996 RMK A01 T01050058  RH  073%=      5-min Rain = 0
KOD1 170519Z 24011KT 11/06 A2996 RMK A01 T01050057  RH  072%=      5-min Rain = 0
KOD1 170520Z 24011KT 10/06 A2996 RMK A01 T01040057  RH  073%=      5-min Rain = 0
KOD1 170521Z 23010KT 10/06 A2996 RMK A01 T01030057  RH  073%=      5-min Rain = 0
KOD1 170522Z 23011KT 10/06 A2996 RMK A01 T01030056  RH  073%=      5-min Rain = 0
KOD1 170523Z 23011KT 10/06 A2996 RMK A01 T01020055  RH  073%=      5-min Rain = 0
KOD1 170524Z 23011KT 10/06 A2996 RMK A01 T01020055  RH  073%=      5-min Rain = 0
KOD1 170525Z 23011KT 10/06 A2996 RMK A01 T01010055  RH  073%=      5-min Rain = 0
KOD1 170526Z 23011KT 10/05 A2996 RMK A01 T01010054  RH  073%=      5-min Rain = 0
KOD1 170527Z 23011KT 10/05 A2996 RMK A01 T01000054  RH  073%=      5-min Rain = 0
KOD1 170528Z 23011KT 10/05 A2996 RMK A01 T01000053  RH  073%=      5-min Rain = 0
KOD1 170529Z 23011KT 10/05 A2996 RMK A01 T00990053  RH  073%=      5-min Rain = 0
KOD1 170530Z 23011KT 10/05 A2996 RMK A01 T00990053  RH  073%=      5-min Rain = 0
KOD1 170531Z 23012KT 10/05 A2996 RMK A01 T00990052  RH  073%=      5-min Rain = 0
KOD1 170532Z 23012KT 10/05 A2996 RMK A01 T00990052  RH  073%=      5-min Rain = 0
KOD1 170533Z 23011KT 10/05 A2996 RMK A01 T00980052  RH  073%=      5-min Rain = 0
KOD1 170534Z 23012KT 10/05 A2996 RMK A01 T00980051  RH  073%=      5-min Rain = 0
KOD1 170535Z 23012KT 10/05 A2996 RMK A01 T00980050  RH  072%=      5-min Rain = 0
KOD1 170536Z 23012KT 10/05 A2996 RMK A01 T00980050  RH  072%=      5-min Rain = 0
KOD1 170537Z 23011KT 10/05 A2996 RMK A01 T00980050  RH  072%=      5-min Rain = 0
KOD1 170538Z 23012KT 10/05 A2996 RMK A01 T00970049  RH  072%=      5-min Rain = 0
KOD1 170539Z 23011KT 10/05 A2996 RMK A01 T00970049  RH  072%=      5-min Rain = 0
KOD1 170540Z 23011KT 10/05 A2996 RMK A01 T00970048  RH  071%=      5-min Rain = 0
KOD1 170541Z 23011KT 10/05 A2996 RMK A01 T00980047  RH  071%=      5-min Rain = 0
KOD1 170542Z 23011KT 10/05 A2996 RMK A01 T00980047  RH  071%=      5-min Rain = 0
KOD1 170543Z 23012KT 10/05 A2996 RMK A01 T00980047  RH  071%=      5-min Rain = 0
KOD1 170544Z 23012KT 10/05 A2996 RMK A01 T00980047  RH  071%=      5-min Rain = 0
KOD1 170545Z 23011KT 10/05 A2996 RMK A01 T00980046  RH  070%=      5-min Rain = 0
KOD1 170546Z 23011KT 10/05 A2996 RMK A01 T00980046  RH  070%=      5-min Rain = 0
KOD1 170547Z 23011KT 10/05 A2996 RMK A01 T00980046  RH  070%=      5-min Rain = 0
KOD1 170548Z 23012KT 10/05 A2996 RMK A01 T00970045  RH  070%=      5-min Rain = 0
KOD1 170549Z 23012KT 10/05 A2996 RMK A01 T00980045  RH  070%=      5-min Rain = 0
KOD1 170550Z 23011KT 10/04 A2996 RMK A01 T00980044  RH  069%=      5-min Rain = 0
KOD1 170551Z 24011KT 10/04 A2996 RMK A01 T00990044  RH  069%=      5-min Rain = 0
KOD1 170552Z 23011KT 10/04 A2996 RMK A01 T00990044  RH  069%=      5-min Rain = 0
KOD1 170553Z 24011KT 10/04 A2996 RMK A01 T00980044  RH  069%=      5-min Rain = 0
KOD1 170554Z 24011KT 10/04 A2996 RMK A01 T00980043  RH  069%=      5-min Rain = 0
KOD1 170555Z 23010KT 10/04 A2996 RMK A01 T00980043  RH  069%=      5-min Rain = 0
KOD1 170556Z 24011KT 10/04 A2996 RMK A01 T00980043  RH  069%=      5-min Rain = 0
KOD1 170557Z 24010KT 10/04 A2996 RMK A01 T00970043  RH  069%=      5-min Rain = 0
KOD1 170558Z 24010KT 10/04 A2996 RMK A01 T00970042  RH  069%=      5-min Rain = 0
KOD1 170559Z 24010KT 10/04 A2996 RMK A01 T00960042  RH  069%=      5-min Rain = 0

Page generated in 0.0722 seconds.